| time (UTC) | temp C | wind direction | speed KPH | gust KPH | rain 1hr cm | rain 24hr cm | rain mn cm | humidity % | barometer mb |
| 20260507180904 | 25 | 357 | 1.6 | 4.8 | 0.00 | 0.00 | 0.00 | 81 | 1018.5 |
| 20260507180803 | 25 | 324 | 3.2 | 4.8 | 0.00 | 0.00 | 0.00 | 80 | 1018.5 |
| 20260507180703 | 25 | 324 | 1.6 | 4.8 | 0.00 | 0.00 | 0.00 | 81 | 1018.5 |
| 20260507180607 | 25 | 352 | 1.6 | 4.8 | 0.00 | 0.00 | 0.00 | 81 | 1018.5 |
| 20260507180507 | 25 | 318 | 1.6 | 4.8 | 0.00 | 0.00 | 0.00 | 81 | 1018.6 |
| 20260507180409 | 25 | 328 | 1.6 | 4.8 | 0.00 | 0.00 | 0.00 | 83 | 1018.5 |
| 20260507180310 | 25 | 348 | 1.6 | 4.8 | 0.00 | 0.00 | 0.00 | 83 | 1018.5 |
| 20260507180012 | 24 | 317 | 1.6 | 4.8 | 0.00 | 0.00 | 0.00 | 84 | 1018.4 |
| 20260507175900 | 24 | 322 | 3.2 | 4.8 | 0.00 | 0.00 | 0.00 | 82 | 1018.3 |
| 20260507175806 | 24 | 291 | 1.6 | 4.8 | 0.00 | 0.00 | 0.00 | 82 | 1018.3 |
| 20260507175616 | 24 | 330 | 1.6 | 4.8 | 0.00 | 0.00 | 0.00 | 82 | 1018.3 |
| 20260507175506 | 23 | 324 | 0.0 | 6.4 | 0.00 | 0.00 | 0.00 | 82 | 1018.3 |
| 20260507175412 | 23 | 326 | 1.6 | 6.4 | 0.00 | 0.00 | 0.00 | 82 | 1018.3 |
| 20260507175341 | 23 | 268 | 1.6 | 6.4 | 0.00 | 0.00 | 0.00 | 82 | 1018.3 |
| 20260507175233 | 23 | 264 | 1.6 | 6.4 | 0.00 | 0.00 | 0.00 | 83 | 1018.3 |
| 20260507175106 | 23 | 324 | 1.6 | 6.4 | 0.00 | 0.00 | 0.00 | 83 | 1018.3 |
| 20260507175021 | 23 | 264 | 1.6 | 6.4 | 0.00 | 0.00 | 0.00 | 84 | 1018.3 |
| 20260507174904 | 23 | 318 | 1.6 | 6.4 | 0.00 | 0.00 | 0.00 | 83 | 1018.2 |
| 20260507174807 | 23 | 326 | 3.2 | 6.4 | 0.00 | 0.00 | 0.00 | 83 | 1018.2 |
| 20260507174709 | 23 | 4 | 3.2 | 6.4 | 0.00 | 0.00 | 0.00 | 83 | 1018.2 |
| 20260507174600 | 23 | 320 | 3.2 | 6.4 | 0.00 | 0.00 | 0.00 | 84 | 1018.2 |
| 20260507174517 | 23 | 326 | 3.2 | 6.4 | 0.00 | 0.00 | 0.00 | 84 | 1018.2 |
| 20260507174414 | 23 | 320 | 3.2 | 6.4 | 0.00 | 0.00 | 0.00 | 85 | 1018.1 |
| 20260507174115 | 23 | 307 | 1.6 | 4.8 | 0.00 | 0.00 | 0.00 | 85 | 1018.2 |
| 20260507173912 | 23 | 328 | 1.6 | 3.2 | 0.00 | 0.00 | 0.00 | 85 | 1018.1 |
| 20260507173716 | 23 | 316 | 1.6 | 3.2 | 0.00 | 0.00 | 0.00 | 85 | 1018.1 |
| 20260507173601 | 22 | 296 | 1.6 | 3.2 | 0.00 | 0.00 | 0.00 | 85 | 1018.1 |
| 20260507173508 | 22 | 335 | 0.0 | 3.2 | 0.00 | 0.00 | 0.00 | 85 | 1018.2 |
| 20260507173416 | 22 | 301 | 0.0 | 3.2 | 0.00 | 0.00 | 0.00 | 85 | 1018.2 |
| 20260507173220 | 22 | 301 | 0.0 | 3.2 | 0.00 | 0.00 | 0.00 | 85 | 1018.2 |
| 20260507173115 | 22 | 333 | 1.6 | 3.2 | 0.00 | 0.00 | 0.00 | 85 | 1018.1 |
| 20260507173026 | 22 | 333 | 0.0 | 3.2 | 0.00 | 0.00 | 0.00 | 85 | 1018.1 |
| 20260507172915 | 22 | 260 | 0.0 | 3.2 | 0.00 | 0.00 | 0.00 | 85 | 1018.1 |
| 20260507172710 | 22 | 261 | 0.0 | 3.2 | 0.00 | 0.00 | 0.00 | 85 | 1018.2 |
| 20260507172506 | 22 | 273 | 0.0 | 3.2 | 0.00 | 0.00 | 0.00 | 86 | 1018.0 |
| 20260507172406 | 22 | 254 | 0.0 | 3.2 | 0.00 | 0.00 | 0.00 | 86 | 1018.0 |
| 20260507172308 | 22 | 231 | 0.0 | 3.2 | 0.00 | 0.00 | 0.00 | 87 | 1018.1 |
| 20260507172212 | 22 | 331 | 0.0 | 3.2 | 0.00 | 0.00 | 0.00 | 87 | 1018.1 |
| 20260507172107 | 21 | 276 | 0.0 | 3.2 | 0.00 | 0.00 | 0.00 | 87 | 1018.1 |
| 20260507172012 | 21 | 276 | 0.0 | 3.2 | 0.00 | 0.00 | 0.00 | 87 | 1018.1 |
| 20260507171946 | 21 | 276 | 0.0 | 3.2 | 0.00 | 0.00 | 0.00 | 86 | 1018.1 |
| 20260507171711 | 21 | 260 | 0.0 | 3.2 | 0.00 | 0.00 | 0.00 | 87 | 1018.1 |
| 20260507171606 | 21 | 260 | 0.0 | 3.2 | 0.00 | 0.00 | 0.00 | 90 | 1018.1 |
| 20260507171512 | 21 | 285 | 1.6 | 3.2 | 0.00 | 0.00 | 0.00 | 90 | 1018.1 |
| 20260507171411 | 21 | 285 | 1.6 | 3.2 | 0.00 | 0.00 | 0.00 | 90 | 1018.1 |
| 20260507171321 | 21 | 303 | 0.0 | 3.2 | 0.00 | 0.00 | 0.00 | 90 | 1018.1 |
| 20260507171207 | 21 | 253 | 0.0 | 3.2 | 0.00 | 0.00 | 0.00 | 90 | 1018.0 |
| 20260507171105 | 21 | 253 | 0.0 | 3.2 | 0.00 | 0.00 | 0.00 | 91 | 1018.1 |
| 20260507171017 | 21 | 253 | 0.0 | 3.2 | 0.00 | 0.00 | 0.00 | 90 | 1018.0 |
| 20260507170907 | 20 | 253 | 0.0 | 3.2 | 0.00 | 0.00 | 0.00 | 90 | 1018.0 |
| 20260507170813 | 20 | 253 | 0.0 | 3.2 | 0.00 | 0.00 | 0.00 | 90 | 1018.0 |
| 20260507170704 | 20 | 220 | 0.0 | 3.2 | 0.00 | 0.00 | 0.00 | 90 | 1018.0 |
| 20260507170626 | 20 | 220 | 0.0 | 3.2 | 0.00 | 0.00 | 0.00 | 90 | 1017.9 |
| 20260507170525 | 20 | 220 | 0.0 | 3.2 | 0.00 | 0.00 | 0.00 | 90 | 1017.9 |
| 20260507170410 | 20 | 220 | 0.0 | 3.2 | 0.00 | 0.00 | 0.00 | 90 | 1017.9 |
| 20260507170319 | 20 | 216 | 0.0 | 3.2 | 0.00 | 0.00 | 0.00 | 90 | 1017.9 |
| 20260507170010 | 20 | 289 | 0.0 | 3.2 | 0.00 | 0.00 | 0.00 | 91 | 1017.9 |
| 20260507165917 | 20 | 289 | 0.0 | 3.2 | 0.00 | 0.00 | 0.00 | 91 | 1017.9 |
| 20260507165806 | 19 | 263 | 0.0 | 3.2 | 0.00 | 0.00 | 0.00 | 92 | 1017.9 |
| 20260507165714 | 19 | 262 | 0.0 | 3.2 | 0.00 | 0.00 | 0.00 | 92 | 1017.9 |
| 20260507165626 | 19 | 207 | 0.0 | 3.2 | 0.00 | 0.00 | 0.00 | 92 | 1017.9 |
| 20260507165532 | 19 | 245 | 0.0 | 3.2 | 0.00 | 0.00 | 0.00 | 93 | 1017.9 |
| 20260507165401 | 19 | 236 | 0.0 | 3.2 | 0.00 | 0.00 | 0.00 | 93 | 1017.9 |
| 20260507165306 | 19 | 241 | 0.0 | 3.2 | 0.00 | 0.00 | 0.00 | 93 | 1017.9 |
| 20260507165208 | 18 | 191 | 0.0 | 3.2 | 0.00 | 0.00 | 0.00 | 93 | 1017.9 |
| 20260507165108 | 18 | 254 | 0.0 | 3.2 | 0.00 | 0.00 | 0.00 | 93 | 1017.9 |
| 20260507165016 | 18 | 208 | 1.6 | 3.2 | 0.00 | 0.00 | 0.00 | 93 | 1017.7 |
| 20260507164804 | 18 | 269 | 0.0 | 3.2 | 0.00 | 0.00 | 0.00 | 94 | 1017.8 |
| 20260507164711 | 18 | 215 | 0.0 | 3.2 | 0.00 | 0.00 | 0.00 | 95 | 1017.8 |
| 20260507164509 | 18 | 234 | 0.0 | 3.2 | 0.00 | 0.00 | 0.00 | 95 | 1017.8 |
| 20260507164307 | 18 | 234 | 0.0 | 3.2 | 0.00 | 0.00 | 0.00 | 95 | 1017.7 |
| 20260507164213 | 18 | 234 | 0.0 | 3.2 | 0.00 | 0.00 | 0.00 | 95 | 1017.7 |
| 20260507164105 | 17 | 234 | 0.0 | 3.2 | 0.00 | 0.00 | 0.00 | 95 | 1017.7 |
| 20260507164010 | 17 | 222 | 0.0 | 3.2 | 0.00 | 0.00 | 0.00 | 96 | 1017.8 |
| 20260507163907 | 17 | 222 | 0.0 | 3.2 | 0.00 | 0.00 | 0.00 | 96 | 1017.7 |
| 20260507163717 | 17 | 222 | 0.0 | 3.2 | 0.00 | 0.00 | 0.00 | 96 | 1017.7 |
| 20260507163606 | 17 | 222 | 0.0 | 3.2 | 0.00 | 0.00 | 0.00 | 96 | 1017.7 |
| 20260507163524 | 17 | 222 | 0.0 | 3.2 | 0.00 | 0.00 | 0.00 | 96 | 1017.7 |
| 20260507163422 | 17 | 222 | 0.0 | 3.2 | 0.00 | 0.00 | 0.00 | 96 | 1017.7 |
| 20260507163302 | 17 | 248 | 0.0 | 3.2 | 0.00 | 0.00 | 0.00 | 96 | 1017.7 |
| 20260507163200 | 17 | 248 | 0.0 | 3.2 | 0.00 | 0.00 | 0.00 | 96 | 1017.6 |
| 20260507163105 | 17 | 248 | 0.0 | 3.2 | 0.00 | 0.00 | 0.00 | 96 | 1017.6 |
| 20260507163009 | 17 | 248 | 0.0 | 3.2 | 0.00 | 0.00 | 0.00 | 96 | 1017.6 |
| 20260507162802 | 17 | 230 | 0.0 | 0.0 | 0.00 | 0.00 | 0.00 | 96 | 1017.7 |
| 20260507162618 | 16 | 230 | 0.0 | 0.0 | 0.00 | 0.00 | 0.00 | 96 | 1017.7 |
| 20260507162505 | 16 | 230 | 0.0 | 0.0 | 0.00 | 0.00 | 0.00 | 96 | 1017.6 |
| 20260507162415 | 16 | 230 | 0.0 | 0.0 | 0.00 | 0.00 | 0.00 | 96 | 1017.6 |
| 20260507162320 | 16 | 230 | 0.0 | 0.0 | 0.00 | 0.00 | 0.00 | 96 | 1017.6 |
| 20260507162110 | 16 | 221 | 0.0 | 0.0 | 0.00 | 0.00 | 0.00 | 96 | 1017.6 |
| 20260507161804 | 16 | 221 | 0.0 | 0.0 | 0.00 | 0.00 | 0.00 | 96 | 1017.6 |
| 20260507161707 | 16 | 221 | 0.0 | 0.0 | 0.00 | 0.00 | 0.00 | 96 | 1017.5 |
| 20260507161625 | 16 | 221 | 0.0 | 0.0 | 0.00 | 0.00 | 0.00 | 96 | 1017.6 |
| 20260507161508 | 16 | 221 | 0.0 | 1.6 | 0.00 | 0.00 | 0.00 | 96 | 1017.5 |
| 20260507161414 | 16 | 221 | 0.0 | 1.6 | 0.00 | 0.00 | 0.00 | 96 | 1017.5 |
| 20260507161202 | 16 | 221 | 0.0 | 1.6 | 0.00 | 0.00 | 0.00 | 96 | 1017.5 |
| 20260507161123 | 16 | 221 | 0.0 | 1.6 | 0.00 | 0.00 | 0.00 | 96 | 1017.5 |
| 20260507161020 | 16 | 221 | 0.0 | 1.6 | 0.00 | 0.00 | 0.00 | 96 | 1017.5 |
| 20260507160907 | 16 | 221 | 0.0 | 1.6 | 0.00 | 0.00 | 0.00 | 96 | 1017.5 |
| 20260507160824 | 16 | 221 | 0.0 | 1.6 | 0.00 | 0.00 | 0.00 | 96 | 1017.5 |
| 20260507160604 | 16 | 228 | 0.0 | 3.2 | 0.00 | 0.00 | 0.00 | 96 | 1017.5 |
| 20260507160506 | 16 | 222 | 0.0 | 3.2 | 0.00 | 0.00 | 0.00 | 96 | 1017.5 |
| 20260507160403 | 16 | 222 | 0.0 | 3.2 | 0.00 | 0.00 | 0.00 | 96 | 1017.5 |
| 20260507160328 | 16 | 222 | 0.0 | 3.2 | 0.00 | 0.00 | 0.00 | 96 | 1017.5 |
| 20260507160209 | 16 | 222 | 0.0 | 3.2 | 0.00 | 0.00 | 0.00 | 96 | 1017.4 |
| 20260507160018 | 16 | 222 | 0.0 | 3.2 | 0.00 | 0.00 | 0.00 | 96 | 1017.5 |
| 20260507155913 | 16 | 222 | 0.0 | 3.2 | 0.00 | 0.00 | 0.00 | 96 | 1017.4 |
| 20260507155821 | 16 | 222 | 0.0 | 3.2 | 0.00 | 0.00 | 0.00 | 96 | 1017.4 |
| 20260507155713 | 16 | 222 | 0.0 | 3.2 | 0.00 | 0.00 | 0.00 | 96 | 1017.4 |
| 20260507155607 | 16 | 222 | 0.0 | 0.0 | 0.00 | 0.00 | 0.00 | 96 | 1017.5 |
| 20260507155518 | 16 | 222 | 0.0 | 0.0 | 0.00 | 0.00 | 0.00 | 96 | 1017.4 |
| 20260507155426 | 16 | 222 | 0.0 | 0.0 | 0.00 | 0.00 | 0.00 | 96 | 1017.4 |
| 20260507155306 | 16 | 222 | 0.0 | 0.0 | 0.00 | 0.00 | 0.00 | 96 | 1017.3 |
| 20260507155203 | 16 | 222 | 0.0 | 0.0 | 0.00 | 0.00 | 0.00 | 96 | 1017.3 |
| 20260507155116 | 16 | 222 | 0.0 | 0.0 | 0.00 | 0.00 | 0.00 | 96 | 1017.3 |
| 20260507154907 | 16 | 222 | 0.0 | 0.0 | 0.00 | 0.00 | 0.00 | 96 | 1017.4 |
| 20260507154810 | 16 | 222 | 0.0 | 0.0 | 0.00 | 0.00 | 0.00 | 96 | 1017.4 |
| 20260507154614 | 16 | 222 | 0.0 | 0.0 | 0.00 | 0.00 | 0.00 | 96 | 1017.3 |
| 20260507154521 | 16 | 222 | 0.0 | 0.0 | 0.00 | 0.00 | 0.00 | 96 | 1017.3 |
| 20260507154402 | 16 | 222 | 0.0 | 0.0 | 0.00 | 0.00 | 0.00 | 96 | 1017.3 |
| 20260507154301 | 16 | 222 | 0.0 | 0.0 | 0.00 | 0.00 | 0.00 | 96 | 1017.3 |
| 20260507154111 | 16 | 222 | 0.0 | 1.6 | 0.00 | 0.00 | 0.00 | 96 | 1017.3 |
| 20260507153808 | 16 | 222 | 0.0 | 3.2 | 0.00 | 0.00 | 0.00 | 96 | 1017.2 |
| 20260507153713 | 16 | 222 | 0.0 | 3.2 | 0.00 | 0.00 | 0.00 | 95 | 1017.3 |
| 20260507153610 | 16 | 222 | 0.0 | 3.2 | 0.00 | 0.00 | 0.00 | 95 | 1017.3 |
| 20260507153407 | 16 | 222 | 0.0 | 3.2 | 0.00 | 0.00 | 0.00 | 95 | 1017.2 |
| 20260507153302 | 16 | 222 | 0.0 | 3.2 | 0.00 | 0.00 | 0.00 | 95 | 1017.2 |
| 20260507153209 | 16 | 222 | 0.0 | 3.2 | 0.00 | 0.00 | 0.00 | 95 | 1017.2 |
| 20260507153106 | 16 | 222 | 0.0 | 3.2 | 0.00 | 0.00 | 0.00 | 95 | 1017.3 |
| 20260507153012 | 16 | 222 | 0.0 | 3.2 | 0.00 | 0.00 | 0.00 | 95 | 1017.3 |
| 20260507152938 | 16 | 222 | 0.0 | 3.2 | 0.00 | 0.00 | 0.00 | 95 | 1017.2 |
| 20260507152714 | 16 | 237 | 0.0 | 1.6 | 0.00 | 0.00 | 0.00 | 95 | 1017.2 |
| 20260507152519 | 16 | 221 | 0.0 | 1.6 | 0.00 | 0.00 | 0.00 | 96 | 1017.2 |
| 20260507152202 | 16 | 221 | 0.0 | 3.2 | 0.00 | 0.00 | 0.00 | 96 | 1017.2 |
| 20260507152100 | 16 | 221 | 0.0 | 3.2 | 0.00 | 0.00 | 0.00 | 95 | 1017.2 |
| 20260507152012 | 16 | 221 | 0.0 | 3.2 | 0.00 | 0.00 | 0.00 | 95 | 1017.2 |
| 20260507151903 | 16 | 221 | 0.0 | 3.2 | 0.00 | 0.00 | 0.00 | 95 | 1017.1 |
| 20260507151805 | 16 | 221 | 0.0 | 3.2 | 0.00 | 0.00 | 0.00 | 95 | 1017.1 |
| 20260507151612 | 16 | 221 | 0.0 | 3.2 | 0.00 | 0.00 | 0.00 | 95 | 1017.1 |
| 20260507151520 | 16 | 221 | 0.0 | 3.2 | 0.00 | 0.00 | 0.00 | 95 | 1017.0 |
| 20260507151401 | 16 | 221 | 0.0 | 3.2 | 0.00 | 0.00 | 0.00 | 95 | 1017.0 |
| 20260507151306 | 16 | 221 | 0.0 | 3.2 | 0.00 | 0.00 | 0.00 | 95 | 1017.0 |
| 20260507151212 | 16 | 221 | 0.0 | 3.2 | 0.00 | 0.00 | 0.00 | 95 | 1017.1 |
| 20260507151128 | 16 | 221 | 0.0 | 3.2 | 0.00 | 0.00 | 0.00 | 95 | 1017.1 |
| 20260507150907 | 16 | 221 | 0.0 | 3.2 | 0.00 | 0.00 | 0.00 | 95 | 1017.0 |
| 20260507150816 | 16 | 221 | 0.0 | 3.2 | 0.00 | 0.00 | 0.00 | 95 | 1017.0 |
| 20260507150704 | 17 | 221 | 0.0 | 3.2 | 0.00 | 0.00 | 0.00 | 95 | 1017.0 |
| 20260507150609 | 17 | 221 | 0.0 | 3.2 | 0.00 | 0.00 | 0.00 | 95 | 1017.0 |
| 20260507150402 | 17 | 221 | 0.0 | 3.2 | 0.00 | 0.00 | 0.00 | 95 | 1017.0 |
| 20260507150333 | 17 | 221 | 0.0 | 3.2 | 0.00 | 0.00 | 0.00 | 95 | 1017.0 |
| 20260507150207 | 17 | 221 | 0.0 | 3.2 | 0.00 | 0.00 | 0.00 | 95 | 1017.0 |
| 20260507150117 | 17 | 221 | 0.0 | 3.2 | 0.00 | 0.00 | 0.00 | 95 | 1017.0 |
| 20260507150008 | 17 | 221 | 0.0 | 3.2 | 0.00 | 0.00 | 0.00 | 95 | 1017.0 |
| 20260507145908 | 17 | 221 | 0.0 | 3.2 | 0.00 | 0.00 | 0.00 | 95 | 1017.1 |
| 20260507145836 | 17 | 221 | 0.0 | 3.2 | 0.00 | 0.00 | 0.00 | 95 | 1017.0 |
| 20260507145709 | 17 | 221 | 0.0 | 3.2 | 0.00 | 0.00 | 0.00 | 95 | 1017.1 |
| 20260507145603 | 17 | 221 | 0.0 | 3.2 | 0.00 | 0.00 | 0.00 | 95 | 1017.0 |
| 20260507145505 | 17 | 221 | 0.0 | 3.2 | 0.00 | 0.00 | 0.00 | 95 | 1017.0 |
| 20260507145405 | 17 | 221 | 0.0 | 3.2 | 0.00 | 0.00 | 0.00 | 95 | 1017.0 |
| 20260507145309 | 17 | 221 | 0.0 | 3.2 | 0.00 | 0.00 | 0.00 | 95 | 1017.0 |
| 20260507145222 | 17 | 221 | 0.0 | 3.2 | 0.00 | 0.00 | 0.00 | 95 | 1017.0 |
| 20260507145104 | 17 | 221 | 0.0 | 3.2 | 0.00 | 0.00 | 0.00 | 95 | 1017.0 |
| 20260507144803 | 17 | 213 | 0.0 | 3.2 | 0.00 | 0.00 | 0.00 | 95 | 1017.0 |
| 20260507144712 | 17 | 213 | 0.0 | 3.2 | 0.00 | 0.00 | 0.00 | 95 | 1017.0 |
| 20260507144603 | 17 | 242 | 0.0 | 3.2 | 0.00 | 0.00 | 0.00 | 95 | 1017.0 |
| 20260507144506 | 17 | 242 | 0.0 | 0.0 | 0.00 | 0.00 | 0.00 | 95 | 1017.0 |
| 20260507144412 | 17 | 242 | 0.0 | 0.0 | 0.00 | 0.00 | 0.00 | 95 | 1017.0 |
| 20260507144303 | 17 | 242 | 0.0 | 0.0 | 0.00 | 0.00 | 0.00 | 96 | 1017.0 |
| 20260507144208 | 17 | 242 | 0.0 | 1.6 | 0.00 | 0.00 | 0.00 | 96 | 1017.0 |
| 20260507144105 | 17 | 242 | 0.0 | 1.6 | 0.00 | 0.00 | 0.00 | 96 | 1017.0 |
| 20260507144006 | 17 | 242 | 0.0 | 3.2 | 0.00 | 0.00 | 0.00 | 96 | 1017.0 |
| 20260507143900 | 17 | 242 | 0.0 | 3.2 | 0.00 | 0.00 | 0.00 | 96 | 1016.9 |
| 20260507143807 | 17 | 242 | 0.0 | 3.2 | 0.00 | 0.00 | 0.00 | 96 | 1016.9 |
| 20260507143706 | 17 | 242 | 0.0 | 3.2 | 0.00 | 0.00 | 0.00 | 96 | 1017.0 |
| 20260507143612 | 17 | 242 | 0.0 | 3.2 | 0.00 | 0.00 | 0.00 | 96 | 1016.9 |
| 20260507143507 | 17 | 242 | 0.0 | 3.2 | 0.00 | 0.00 | 0.00 | 96 | 1016.9 |
| 20260507143418 | 17 | 242 | 0.0 | 3.2 | 0.00 | 0.00 | 0.00 | 96 | 1016.9 |
| 20260507143314 | 17 | 262 | 0.0 | 1.6 | 0.00 | 0.00 | 0.00 | 96 | 1016.9 |
| 20260507143107 | 17 | 233 | 0.0 | 1.6 | 0.00 | 0.00 | 0.00 | 96 | 1016.9 |
| 20260507143008 | 17 | 225 | 0.0 | 1.6 | 0.00 | 0.00 | 0.00 | 96 | 1016.9 |
| 20260507142909 | 17 | 225 | 0.0 | 1.6 | 0.00 | 0.00 | 0.00 | 96 | 1016.9 |
| 20260507142831 | 17 | 224 | 0.0 | 1.6 | 0.00 | 0.00 | 0.00 | 96 | 1016.9 |
| 20260507142713 | 17 | 219 | 0.0 | 0.0 | 0.00 | 0.00 | 0.00 | 96 | 1016.9 |
| 20260507142626 | 17 | 219 | 0.0 | 3.2 | 0.00 | 0.00 | 0.00 | 96 | 1016.8 |
| 20260507142509 | 17 | 219 | 0.0 | 3.2 | 0.00 | 0.00 | 0.00 | 96 | 1016.9 |
| 20260507142410 | 17 | 219 | 0.0 | 3.2 | 0.00 | 0.00 | 0.00 | 96 | 1016.9 |
| 20260507142308 | 17 | 219 | 0.0 | 3.2 | 0.00 | 0.00 | 0.00 | 96 | 1016.9 |
| 20260507142200 | 17 | 234 | 0.0 | 3.2 | 0.00 | 0.00 | 0.00 | 96 | 1016.8 |
| 20260507142124 | 17 | 234 | 0.0 | 3.2 | 0.00 | 0.00 | 0.00 | 96 | 1016.8 |
| 20260507142024 | 17 | 234 | 0.0 | 3.2 | 0.00 | 0.00 | 0.00 | 96 | 1016.8 |
| 20260507141907 | 17 | 234 | 0.0 | 3.2 | 0.00 | 0.00 | 0.00 | 96 | 1016.9 |
| 20260507141815 | 17 | 234 | 0.0 | 3.2 | 0.00 | 0.00 | 0.00 | 96 | 1016.8 |
| 20260507141702 | 17 | 234 | 0.0 | 3.2 | 0.00 | 0.00 | 0.00 | 97 | 1016.8 |
| 20260507141606 | 17 | 233 | 0.0 | 3.2 | 0.00 | 0.00 | 0.00 | 97 | 1016.8 |
| 20260507141507 | 17 | 232 | 0.0 | 3.2 | 0.00 | 0.00 | 0.00 | 97 | 1016.8 |
| 20260507141307 | 17 | 233 | 0.0 | 3.2 | 0.00 | 0.00 | 0.00 | 97 | 1016.8 |
| 20260507141214 | 17 | 233 | 0.0 | 3.2 | 0.00 | 0.00 | 0.00 | 97 | 1016.8 |
| 20260507141112 | 17 | 233 | 0.0 | 3.2 | 0.00 | 0.00 | 0.00 | 97 | 1016.9 |
| 20260507140904 | 17 | 233 | 0.0 | 1.6 | 0.00 | 0.00 | 0.00 | 97 | 1016.8 |
| 20260507140841 | 17 | 233 | 0.0 | 1.6 | 0.00 | 0.00 | 0.00 | 97 | 1016.8 |
| 20260507140712 | 17 | 233 | 0.0 | 1.6 | 0.00 | 0.00 | 0.00 | 97 | 1016.8 |
| 20260507140601 | 17 | 233 | 0.0 | 1.6 | 0.00 | 0.00 | 0.00 | 97 | 1016.8 |
| 20260507140403 | 17 | 231 | 0.0 | 3.2 | 0.00 | 0.00 | 0.00 | 97 | 1016.8 |
| 20260507140306 | 17 | 231 | 0.0 | 3.2 | 0.00 | 0.00 | 0.00 | 97 | 1016.8 |
| 20260507140216 | 17 | 227 | 0.0 | 3.2 | 0.00 | 0.00 | 0.00 | 97 | 1016.8 |
| 20260507140103 | 17 | 219 | 0.0 | 3.2 | 0.00 | 0.00 | 0.00 | 97 | 1016.8 |
| 20260507140006 | 17 | 219 | 0.0 | 3.2 | 0.00 | 0.00 | 0.00 | 97 | 1016.8 |
| 20260507135905 | 17 | 219 | 0.0 | 3.2 | 0.00 | 0.00 | 0.00 | 97 | 1016.8 |
| 20260507135805 | 17 | 219 | 0.0 | 3.2 | 0.00 | 0.00 | 0.00 | 97 | 1016.8 |
| 20260507135727 | 17 | 219 | 0.0 | 3.2 | 0.00 | 0.00 | 0.00 | 97 | 1016.9 |
| 20260507135603 | 17 | 219 | 0.0 | 3.2 | 0.00 | 0.00 | 0.00 | 97 | 1016.8 |
| 20260507135507 | 17 | 218 | 0.0 | 3.2 | 0.00 | 0.00 | 0.00 | 97 | 1016.8 |
| 20260507135413 | 17 | 218 | 0.0 | 3.2 | 0.00 | 0.00 | 0.00 | 97 | 1016.8 |
| 20260507135320 | 17 | 218 | 0.0 | 3.2 | 0.00 | 0.00 | 0.00 | 97 | 1016.8 |
| 20260507135212 | 17 | 217 | 0.0 | 3.2 | 0.00 | 0.00 | 0.00 | 97 | 1016.9 |
| 20260507135127 | 17 | 241 | 0.0 | 3.2 | 0.00 | 0.00 | 0.00 | 97 | 1016.8 |
| 20260507135006 | 17 | 241 | 0.0 | 3.2 | 0.00 | 0.00 | 0.00 | 97 | 1016.8 |
| 20260507134917 | 17 | 241 | 0.0 | 3.2 | 0.00 | 0.00 | 0.00 | 97 | 1016.8 |
| 20260507134803 | 17 | 241 | 0.0 | 3.2 | 0.00 | 0.00 | 0.00 | 97 | 1016.8 |
| 20260507134706 | 17 | 241 | 0.0 | 3.2 | 0.00 | 0.00 | 0.00 | 97 | 1016.8 |
| 20260507134602 | 17 | 241 | 0.0 | 3.2 | 0.00 | 0.00 | 0.00 | 97 | 1016.8 |
| 20260507134509 | 17 | 241 | 0.0 | 3.2 | 0.00 | 0.00 | 0.00 | 97 | 1016.8 |
| 20260507134406 | 17 | 241 | 0.0 | 3.2 | 0.00 | 0.00 | 0.00 | 97 | 1016.8 |
| 20260507134316 | 17 | 241 | 0.0 | 0.0 | 0.00 | 0.00 | 0.00 | 97 | 1016.9 |
| 20260507134209 | 17 | 241 | 0.0 | 0.0 | 0.00 | 0.00 | 0.00 | 97 | 1016.8 |
| 20260507134010 | 17 | 281 | 0.0 | 0.0 | 0.00 | 0.00 | 0.00 | 97 | 1016.8 |
| 20260507133904 | 17 | 281 | 0.0 | 0.0 | 0.00 | 0.00 | 0.00 | 97 | 1016.8 |
| 20260507133808 | 17 | 281 | 0.0 | 0.0 | 0.00 | 0.00 | 0.00 | 98 | 1016.8 |
| 20260507133739 | 17 | 281 | 0.0 | 0.0 | 0.00 | 0.00 | 0.00 | 98 | 1016.8 |
| 20260507133509 | 17 | 281 | 0.0 | 0.0 | 0.00 | 0.00 | 0.00 | 98 | 1016.8 |
| 20260507133409 | 17 | 281 | 0.0 | 0.0 | 0.00 | 0.00 | 0.00 | 98 | 1016.8 |
| 20260507133311 | 17 | 281 | 0.0 | 0.0 | 0.00 | 0.00 | 0.00 | 98 | 1016.7 |
| 20260507133207 | 17 | 281 | 0.0 | 0.0 | 0.00 | 0.00 | 0.00 | 98 | 1016.8 |
| 20260507133114 | 17 | 281 | 0.0 | 0.0 | 0.00 | 0.00 | 0.00 | 98 | 1016.8 |
| 20260507132804 | 18 | 281 | 0.0 | 0.0 | 0.00 | 0.00 | 0.00 | 98 | 1016.8 |
| 20260507132706 | 18 | 281 | 0.0 | 0.0 | 0.00 | 0.00 | 0.00 | 98 | 1016.8 |
| 20260507132529 | 18 | 281 | 0.0 | 0.0 | 0.00 | 0.00 | 0.00 | 98 | 1016.8 |
| 20260507132412 | 18 | 281 | 0.0 | 0.0 | 0.00 | 0.00 | 0.00 | 98 | 1016.8 |
| 20260507132306 | 18 | 281 | 0.0 | 1.6 | 0.00 | 0.00 | 0.00 | 98 | 1016.7 |
| 20260507132208 | 18 | 281 | 0.0 | 1.6 | 0.00 | 0.00 | 0.00 | 98 | 1016.7 |
| 20260507132124 | 18 | 281 | 0.0 | 1.6 | 0.00 | 0.00 | 0.00 | 98 | 1016.8 |
| 20260507132006 | 18 | 281 | 0.0 | 3.2 | 0.00 | 0.00 | 0.00 | 98 | 1016.8 |
| 20260507131821 | 18 | 281 | 0.0 | 3.2 | 0.00 | 0.00 | 0.00 | 98 | 1016.8 |
| 20260507131702 | 18 | 281 | 0.0 | 3.2 | 0.00 | 0.00 | 0.00 | 98 | 1016.7 |
| 20260507131612 | 18 | 281 | 0.0 | 3.2 | 0.00 | 0.00 | 0.00 | 98 | 1016.7 |
| 20260507131521 | 18 | 279 | 0.0 | 3.2 | 0.00 | 0.00 | 0.00 | 98 | 1016.7 |
| 20260507131308 | 18 | 279 | 0.0 | 3.2 | 0.00 | 0.00 | 0.00 | 98 | 1016.7 |
| 20260507131203 | 18 | 279 | 0.0 | 3.2 | 0.00 | 0.00 | 0.00 | 98 | 1016.6 |
| 20260507131113 | 18 | 279 | 0.0 | 3.2 | 0.00 | 0.00 | 0.00 | 98 | 1016.6 |
| 20260507131004 | 18 | 279 | 0.0 | 3.2 | 0.00 | 0.00 | 0.00 | 98 | 1016.6 |
| 20260507130921 | 18 | 279 | 0.0 | 3.2 | 0.00 | 0.00 | 0.00 | 98 | 1016.6 |
| 20260507130808 | 18 | 279 | 0.0 | 3.2 | 0.00 | 0.00 | 0.00 | 98 | 1016.6 |
| 20260507130719 | 18 | 279 | 0.0 | 3.2 | 0.00 | 0.00 | 0.00 | 98 | 1016.6 |
| 20260507130519 | 18 | 279 | 0.0 | 0.0 | 0.00 | 0.00 | 0.00 | 98 | 1016.7 |
| 20260507130300 | 18 | 279 | 0.0 | 0.0 | 0.00 | 0.00 | 0.00 | 98 | 1016.7 |
| 20260507130215 | 18 | 279 | 0.0 | 0.0 | 0.00 | 0.00 | 0.00 | 98 | 1016.7 |
| 20260507130109 | 18 | 279 | 0.0 | 1.6 | 0.00 | 0.00 | 0.00 | 98 | 1016.7 |
| 20260507125912 | 18 | 279 | 0.0 | 3.2 | 0.00 | 0.00 | 0.00 | 98 | 1016.8 |
| 20260507125806 | 18 | 279 | 0.0 | 3.2 | 0.00 | 0.00 | 0.00 | 98 | 1016.7 |
| 20260507125704 | 18 | 279 | 0.0 | 3.2 | 0.00 | 0.00 | 0.00 | 98 | 1016.7 |
| 20260507125600 | 18 | 279 | 0.0 | 3.2 | 0.00 | 0.00 | 0.00 | 98 | 1016.6 |
| 20260507125509 | 18 | 279 | 0.0 | 3.2 | 0.00 | 0.00 | 0.00 | 98 | 1016.6 |
| 20260507125403 | 18 | 279 | 0.0 | 3.2 | 0.00 | 0.00 | 0.00 | 98 | 1016.6 |
| 20260507125301 | 18 | 279 | 0.0 | 3.2 | 0.00 | 0.00 | 0.00 | 98 | 1016.5 |
| 20260507125214 | 18 | 279 | 0.0 | 3.2 | 0.00 | 0.00 | 0.00 | 98 | 1016.5 |
| 20260507125103 | 18 | 279 | 0.0 | 3.2 | 0.00 | 0.00 | 0.00 | 98 | 1016.5 |
| 20260507125008 | 18 | 279 | 0.0 | 3.2 | 0.00 | 0.00 | 0.00 | 98 | 1016.5 |
| 20260507124907 | 18 | 279 | 0.0 | 3.2 | 0.00 | 0.00 | 0.00 | 98 | 1016.5 |
| 20260507124804 | 18 | 279 | 0.0 | 3.2 | 0.00 | 0.00 | 0.00 | 98 | 1016.5 |
| 20260507124715 | 18 | 279 | 0.0 | 3.2 | 0.00 | 0.00 | 0.00 | 98 | 1016.5 |
| 20260507124607 | 18 | 279 | 0.0 | 3.2 | 0.00 | 0.00 | 0.00 | 98 | 1016.5 |
| 20260507124402 | 18 | 279 | 0.0 | 3.2 | 0.00 | 0.00 | 0.00 | 98 | 1016.5 |
| 20260507124302 | 18 | 279 | 0.0 | 3.2 | 0.00 | 0.00 | 0.00 | 98 | 1016.5 |
| 20260507124105 | 18 | 278 | 0.0 | 3.2 | 0.00 | 0.00 | 0.00 | 98 | 1016.5 |
| 20260507124013 | 18 | 260 | 0.0 | 0.0 | 0.00 | 0.00 | 0.00 | 98 | 1016.4 |
| 20260507123918 | 18 | 260 | 0.0 | 0.0 | 0.00 | 0.00 | 0.00 | 98 | 1016.5 |
| 20260507123815 | 18 | 260 | 0.0 | 0.0 | 0.00 | 0.00 | 0.00 | 98 | 1016.5 |
| 20260507123716 | 18 | 260 | 0.0 | 0.0 | 0.00 | 0.00 | 0.00 | 98 | 1016.5 |
| 20260507123610 | 18 | 260 | 0.0 | 0.0 | 0.00 | 0.00 | 0.00 | 98 | 1016.5 |
| 20260507123408 | 18 | 260 | 0.0 | 0.0 | 0.00 | 0.00 | 0.00 | 98 | 1016.5 |
| 20260507123324 | 18 | 260 | 0.0 | 0.0 | 0.00 | 0.00 | 0.00 | 98 | 1016.5 |
| 20260507123200 | 18 | 260 | 0.0 | 0.0 | 0.00 | 0.00 | 0.00 | 98 | 1016.6 |
| 20260507123142 | 18 | 260 | 0.0 | 0.0 | 0.00 | 0.00 | 0.00 | 98 | 1016.6 |
| 20260507123006 | 18 | 260 | 0.0 | 0.0 | 0.00 | 0.00 | 0.00 | 98 | 1016.6 |
| 20260507122917 | 18 | 260 | 0.0 | 0.0 | 0.00 | 0.00 | 0.00 | 98 | 1016.6 |
| 20260507122817 | 18 | 253 | 0.0 | 0.0 | 0.00 | 0.00 | 0.00 | 98 | 1016.7 |
| 20260507122711 | 18 | 249 | 0.0 | 0.0 | 0.00 | 0.00 | 0.00 | 98 | 1016.6 |
| 20260507122602 | 18 | 249 | 0.0 | 0.0 | 0.00 | 0.00 | 0.00 | 98 | 1016.6 |
| 20260507122430 | 18 | 249 | 0.0 | 0.0 | 0.00 | 0.00 | 0.00 | 98 | 1016.6 |
| 20260507122349 | 18 | 249 | 0.0 | 0.0 | 0.00 | 0.00 | 0.00 | 98 | 1016.5 |
| 20260507122214 | 18 | 249 | 0.0 | 0.0 | 0.00 | 0.00 | 0.00 | 98 | 1016.6 |
| 20260507122114 | 18 | 249 | 0.0 | 0.0 | 0.00 | 0.00 | 0.00 | 98 | 1016.6 |
| 20260507122005 | 18 | 249 | 0.0 | 0.0 | 0.00 | 0.00 | 0.00 | 98 | 1016.6 |
| 20260507121722 | 18 | 249 | 0.0 | 0.0 | 0.00 | 0.00 | 0.00 | 98 | 1016.7 |
| 20260507121617 | 18 | 249 | 0.0 | 0.0 | 0.00 | 0.00 | 0.00 | 98 | 1016.7 |
| 20260507121506 | 18 | 249 | 0.0 | 0.0 | 0.00 | 0.00 | 0.00 | 98 | 1016.6 |
| 20260507121402 | 18 | 249 | 0.0 | 0.0 | 0.00 | 0.00 | 0.00 | 98 | 1016.6 |
| 20260507121012 | 18 | 249 | 0.0 | 3.2 | 0.00 | 0.00 | 0.00 | 98 | 1016.7 |
| 20260507120914 | 18 | 249 | 0.0 | 3.2 | 0.00 | 0.00 | 0.00 | 98 | 1016.7 |
| 20260507120801 | 18 | 249 | 0.0 | 3.2 | 0.00 | 0.00 | 0.00 | 98 | 1016.7 |
| 20260507120735 | 18 | 249 | 0.0 | 3.2 | 0.00 | 0.00 | 0.00 | 98 | 1016.7 |
| 20260507120624 | 18 | 249 | 0.0 | 3.2 | 0.00 | 0.00 | 0.00 | 98 | 1016.7 |
| 20260507120404 | 18 | 249 | 0.0 | 3.2 | 0.00 | 0.00 | 0.00 | 98 | 1016.7 |
| 20260507120310 | 18 | 260 | 0.0 | 3.2 | 0.00 | 0.00 | 0.00 | 98 | 1016.7 |
| 20260507120118 | 18 | 260 | 0.0 | 0.0 | 0.00 | 0.00 | 0.00 | 98 | 1016.7 |
| 20260507120010 | 18 | 260 | 0.0 | 0.0 | 0.00 | 0.00 | 0.00 | 98 | 1016.7 |
| 20260507115916 | 18 | 260 | 0.0 | 0.0 | 0.00 | 0.00 | 0.00 | 98 | 1016.7 |
| 20260507115810 | 18 | 260 | 0.0 | 0.0 | 0.00 | 0.00 | 0.00 | 98 | 1016.8 |
| 20260507115705 | 18 | 260 | 0.0 | 0.0 | 0.00 | 0.00 | 0.00 | 98 | 1016.7 |
| 20260507115622 | 18 | 260 | 0.0 | 0.0 | 0.00 | 0.00 | 0.00 | 98 | 1016.8 |
| 20260507115401 | 18 | 260 | 0.0 | 0.0 | 0.00 | 0.00 | 0.00 | 98 | 1016.8 |
| 20260507115301 | 18 | 260 | 0.0 | 0.0 | 0.00 | 0.00 | 0.00 | 98 | 1016.8 |
| 20260507115200 | 18 | 260 | 0.0 | 0.0 | 0.00 | 0.00 | 0.00 | 98 | 1016.8 |
| 20260507115122 | 18 | 260 | 0.0 | 0.0 | 0.00 | 0.00 | 0.00 | 98 | 1016.8 |
| 20260507115011 | 18 | 260 | 0.0 | 0.0 | 0.00 | 0.00 | 0.00 | 98 | 1016.9 |
| 20260507114932 | 18 | 260 | 0.0 | 0.0 | 0.00 | 0.00 | 0.00 | 98 | 1016.9 |
| 20260507114817 | 18 | 260 | 0.0 | 0.0 | 0.00 | 0.00 | 0.00 | 98 | 1016.9 |
| 20260507114611 | 18 | 260 | 0.0 | 0.0 | 0.00 | 0.00 | 0.00 | 98 | 1016.8 |
| 20260507114506 | 18 | 260 | 0.0 | 0.0 | 0.00 | 0.00 | 0.00 | 98 | 1016.8 |
| 20260507114212 | 18 | 260 | 0.0 | 0.0 | 0.00 | 0.00 | 0.00 | 98 | 1016.9 |
| 20260507114121 | 18 | 260 | 0.0 | 0.0 | 0.00 | 0.00 | 0.00 | 98 | 1016.9 |
| 20260507113911 | 19 | 260 | 0.0 | 0.0 | 0.00 | 0.00 | 0.00 | 98 | 1016.9 |
| 20260507113813 | 19 | 260 | 0.0 | 0.0 | 0.00 | 0.00 | 0.00 | 98 | 1016.9 |
| 20260507113738 | 19 | 260 | 0.0 | 0.0 | 0.00 | 0.00 | 0.00 | 98 | 1016.9 |
| 20260507113603 | 19 | 260 | 0.0 | 0.0 | 0.00 | 0.00 | 0.00 | 98 | 1016.9 |
| 20260507113508 | 19 | 260 | 0.0 | 0.0 | 0.00 | 0.00 | 0.00 | 98 | 1016.9 |
| 20260507113402 | 19 | 260 | 0.0 | 0.0 | 0.00 | 0.00 | 0.00 | 98 | 1017.0 |
| 20260507113109 | 19 | 260 | 0.0 | 0.0 | 0.00 | 0.00 | 0.00 | 98 | 1017.1 |
| 20260507112923 | 19 | 260 | 0.0 | 0.0 | 0.00 | 0.00 | 0.00 | 98 | 1017.0 |
| 20260507112803 | 19 | 260 | 0.0 | 0.0 | 0.00 | 0.00 | 0.00 | 98 | 1017.0 |
| 20260507112701 | 19 | 260 | 0.0 | 1.6 | 0.00 | 0.00 | 0.00 | 98 | 1017.0 |
| 20260507112611 | 19 | 260 | 0.0 | 1.6 | 0.00 | 0.00 | 0.00 | 98 | 1017.0 |
| 20260507112413 | 19 | 260 | 0.0 | 1.6 | 0.00 | 0.00 | 0.00 | 98 | 1017.1 |
| 20260507112313 | 19 | 260 | 0.0 | 1.6 | 0.00 | 0.00 | 0.00 | 98 | 1017.1 |
| 20260507112204 | 19 | 260 | 0.0 | 1.6 | 0.00 | 0.00 | 0.00 | 98 | 1017.1 |
| 20260507112109 | 19 | 260 | 0.0 | 1.6 | 0.00 | 0.00 | 0.00 | 98 | 1017.2 |
| 20260507112018 | 19 | 260 | 0.0 | 1.6 | 0.00 | 0.00 | 0.00 | 98 | 1017.1 |
| 20260507111907 | 19 | 260 | 0.0 | 1.6 | 0.00 | 0.00 | 0.00 | 98 | 1017.1 |
| 20260507111835 | 19 | 260 | 0.0 | 1.6 | 0.00 | 0.00 | 0.00 | 98 | 1017.2 |
| 20260507111700 | 19 | 260 | 0.0 | 1.6 | 0.00 | 0.00 | 0.00 | 98 | 1017.2 |
| 20260507111608 | 19 | 260 | 0.0 | 1.6 | 0.00 | 0.00 | 0.00 | 98 | 1017.2 |
| 20260507111506 | 19 | 266 | 0.0 | 3.2 | 0.00 | 0.00 | 0.00 | 98 | 1017.2 |
| 20260507111437 | 19 | 270 | 0.0 | 3.2 | 0.00 | 0.00 | 0.00 | 98 | 1017.2 |
| 20260507111303 | 19 | 270 | 0.0 | 3.2 | 0.00 | 0.00 | 0.00 | 98 | 1017.2 |
| 20260507111200 | 19 | 270 | 0.0 | 3.2 | 0.00 | 0.00 | 0.00 | 98 | 1017.2 |
| 20260507111109 | 19 | 270 | 0.0 | 3.2 | 0.00 | 0.00 | 0.00 | 98 | 1017.2 |
| 20260507111005 | 19 | 270 | 0.0 | 3.2 | 0.00 | 0.00 | 0.00 | 98 | 1017.3 |
| 20260507110909 | 19 | 270 | 0.0 | 3.2 | 0.00 | 0.00 | 0.00 | 98 | 1017.3 |
| 20260507110805 | 19 | 269 | 0.0 | 3.2 | 0.00 | 0.00 | 0.00 | 98 | 1017.3 |
| 20260507110710 | 19 | 270 | 0.0 | 3.2 | 0.00 | 0.00 | 0.00 | 98 | 1017.3 |
| 20260507110611 | 19 | 270 | 0.0 | 3.2 | 0.00 | 0.00 | 0.00 | 98 | 1017.3 |
| 20260507110517 | 19 | 268 | 0.0 | 3.2 | 0.00 | 0.00 | 0.00 | 98 | 1017.3 |
| 20260507110400 | 19 | 264 | 0.0 | 3.2 | 0.00 | 0.00 | 0.00 | 98 | 1017.3 |
| 20260507110322 | 19 | 264 | 0.0 | 3.2 | 0.00 | 0.00 | 0.00 | 98 | 1017.3 |
| 20260507110216 | 19 | 264 | 0.0 | 3.2 | 0.00 | 0.00 | 0.00 | 98 | 1017.3 |
| 20260507110042 | 19 | 283 | 0.0 | 3.2 | 0.00 | 0.00 | 0.00 | 98 | 1017.3 |
| 20260507105807 | 19 | 276 | 0.0 | 3.2 | 0.00 | 0.00 | 0.00 | 98 | 1017.4 |
| 20260507105710 | 19 | 276 | 0.0 | 3.2 | 0.00 | 0.00 | 0.00 | 98 | 1017.5 |
| 20260507105619 | 19 | 276 | 0.0 | 0.0 | 0.00 | 0.00 | 0.00 | 98 | 1017.4 |
| 20260507105506 | 20 | 276 | 0.0 | 0.0 | 0.00 | 0.00 | 0.00 | 98 | 1017.5 |
| 20260507105407 | 20 | 276 | 0.0 | 0.0 | 0.00 | 0.00 | 0.00 | 98 | 1017.4 |
| 20260507105127 | 20 | 276 | 0.0 | 3.2 | 0.00 | 0.00 | 0.00 | 98 | 1017.5 |
| 20260507105016 | 20 | 276 | 0.0 | 3.2 | 0.00 | 0.00 | 0.00 | 98 | 1017.5 |
| 20260507104914 | 20 | 276 | 0.0 | 3.2 | 0.00 | 0.00 | 0.00 | 98 | 1017.5 |
| 20260507104824 | 20 | 276 | 0.0 | 3.2 | 0.00 | 0.00 | 0.00 | 98 | 1017.6 |
| 20260507104722 | 20 | 276 | 0.0 | 3.2 | 0.00 | 0.00 | 0.00 | 98 | 1017.6 |
| 20260507104629 | 20 | 276 | 0.0 | 3.2 | 0.00 | 0.00 | 0.00 | 98 | 1017.6 |
| 20260507104535 | 20 | 276 | 0.0 | 3.2 | 0.00 | 0.00 | 0.00 | 98 | 1017.5 |
| 20260507104408 | 20 | 276 | 0.0 | 3.2 | 0.00 | 0.00 | 0.00 | 98 | 1017.7 |
| 20260507104314 | 20 | 276 | 0.0 | 3.2 | 0.00 | 0.00 | 0.00 | 98 | 1017.6 |
| 20260507104242 | 20 | 276 | 0.0 | 3.2 | 0.00 | 0.00 | 0.00 | 98 | 1017.6 |
| 20260507104129 | 20 | 280 | 0.0 | 3.2 | 0.00 | 0.00 | 0.00 | 98 | 1017.7 |
| 20260507104018 | 20 | 280 | 0.0 | 3.2 | 0.00 | 0.00 | 0.00 | 98 | 1017.6 |
| 20260507103912 | 20 | 280 | 0.0 | 3.2 | 0.00 | 0.00 | 0.00 | 98 | 1017.6 |
| 20260507103735 | 20 | 281 | 0.0 | 3.2 | 0.00 | 0.00 | 0.00 | 98 | 1017.7 |
| 20260507103610 | 20 | 281 | 0.0 | 3.2 | 0.00 | 0.00 | 0.00 | 98 | 1017.8 |
| 20260507103521 | 20 | 281 | 0.0 | 3.2 | 0.00 | 0.00 | 0.00 | 98 | 1017.8 |
| 20260507103401 | 20 | 281 | 0.0 | 3.2 | 0.00 | 0.00 | 0.00 | 98 | 1017.8 |
| 20260507103205 | 20 | 282 | 0.0 | 3.2 | 0.00 | 0.00 | 0.00 | 98 | 1017.9 |
| 20260507103031 | 20 | 282 | 0.0 | 3.2 | 0.00 | 0.00 | 0.00 | 98 | 1017.9 |
| 20260507102909 | 20 | 282 | 0.0 | 3.2 | 0.00 | 0.00 | 0.00 | 98 | 1017.9 |
| 20260507102818 | 20 | 282 | 0.0 | 3.2 | 0.00 | 0.00 | 0.00 | 98 | 1017.9 |
| 20260507102712 | 20 | 282 | 1.6 | 3.2 | 0.00 | 0.00 | 0.00 | 98 | 1017.9 |
| 20260507102613 | 20 | 282 | 1.6 | 3.2 | 0.00 | 0.00 | 0.00 | 98 | 1018.0 |
| 20260507102507 | 20 | 288 | 0.0 | 3.2 | 0.00 | 0.00 | 0.00 | 98 | 1018.0 |
| 20260507102404 | 20 | 286 | 0.0 | 1.6 | 0.00 | 0.00 | 0.00 | 98 | 1017.9 |
| 20260507102308 | 20 | 314 | 0.0 | 1.6 | 0.00 | 0.00 | 0.00 | 98 | 1017.9 |
| 20260507102112 | 20 | 314 | 0.0 | 1.6 | 0.00 | 0.00 | 0.00 | 98 | 1017.9 |
| 20260507102007 | 20 | 314 | 0.0 | 1.6 | 0.00 | 0.00 | 0.00 | 98 | 1017.9 |
| 20260507101806 | 20 | 52 | 0.0 | 1.6 | 0.00 | 0.00 | 0.00 | 98 | 1017.9 |
| 20260507101719 | 20 | 52 | 0.0 | 1.6 | 0.00 | 0.00 | 0.00 | 98 | 1017.9 |
| 20260507101613 | 20 | 52 | 0.0 | 1.6 | 0.00 | 0.00 | 0.00 | 98 | 1017.8 |
| 20260507101507 | 20 | 52 | 0.0 | 1.6 | 0.00 | 0.00 | 0.00 | 98 | 1017.9 |
| 20260507101405 | 20 | 52 | 0.0 | 1.6 | 0.00 | 0.00 | 0.00 | 98 | 1017.8 |
| 20260507101312 | 20 | 52 | 0.0 | 0.0 | 0.00 | 0.00 | 0.00 | 98 | 1017.8 |
| 20260507101125 | 20 | 52 | 0.0 | 0.0 | 0.00 | 0.00 | 0.00 | 98 | 1017.8 |
| 20260507101025 | 20 | 52 | 0.0 | 0.0 | 0.00 | 0.00 | 0.00 | 98 | 1017.8 |
| 20260507100910 | 20 | 52 | 0.0 | 0.0 | 0.00 | 0.00 | 0.00 | 98 | 1017.9 |
| 20260507100803 | 20 | 52 | 0.0 | 0.0 | 0.00 | 0.00 | 0.00 | 98 | 1017.8 |
| 20260507100709 | 20 | 52 | 0.0 | 0.0 | 0.00 | 0.00 | 0.00 | 98 | 1017.9 |
| 20260507100612 | 20 | 52 | 0.0 | 0.0 | 0.00 | 0.00 | 0.00 | 98 | 1017.9 |
| 20260507100513 | 20 | 52 | 0.0 | 0.0 | 0.00 | 0.00 | 0.00 | 98 | 1017.9 |
| 20260507100410 | 20 | 52 | 0.0 | 0.0 | 0.00 | 0.00 | 0.00 | 98 | 1017.9 |
| 20260507100323 | 20 | 52 | 0.0 | 0.0 | 0.00 | 0.00 | 0.00 | 98 | 1018.0 |
| 20260507100212 | 20 | 52 | 0.0 | 0.0 | 0.00 | 0.00 | 0.00 | 98 | 1017.9 |
| 20260507100012 | 20 | 52 | 0.0 | 0.0 | 0.00 | 0.00 | 0.00 | 98 | 1018.0 |
| 20260507095902 | 20 | 52 | 0.0 | 0.0 | 0.00 | 0.00 | 0.00 | 98 | 1017.9 |
| 20260507095809 | 20 | 52 | 0.0 | 0.0 | 0.00 | 0.00 | 0.00 | 98 | 1017.9 |
| 20260507095707 | 20 | 52 | 0.0 | 0.0 | 0.00 | 0.00 | 0.00 | 98 | 1018.0 |
| 20260507095617 | 20 | 52 | 0.0 | 0.0 | 0.00 | 0.00 | 0.00 | 98 | 1017.9 |
| 20260507095511 | 20 | 52 | 0.0 | 0.0 | 0.00 | 0.00 | 0.00 | 98 | 1018.0 |
| 20260507095403 | 20 | 52 | 0.0 | 0.0 | 0.00 | 0.00 | 0.00 | 98 | 1018.0 |
| 20260507095311 | 20 | 52 | 0.0 | 0.0 | 0.00 | 0.00 | 0.00 | 98 | 1018.0 |
| 20260507095209 | 20 | 52 | 0.0 | 0.0 | 0.00 | 0.00 | 0.00 | 98 | 1018.0 |
| 20260507095106 | 20 | 52 | 0.0 | 0.0 | 0.00 | 0.00 | 0.00 | 98 | 1018.0 |
| 20260507095006 | 20 | 52 | 0.0 | 0.0 | 0.00 | 0.00 | 0.00 | 98 | 1018.0 |
| 20260507094911 | 20 | 52 | 0.0 | 0.0 | 0.00 | 0.00 | 0.00 | 98 | 1018.0 |
| 20260507094820 | 20 | 52 | 0.0 | 0.0 | 0.00 | 0.00 | 0.00 | 98 | 1018.0 |
| 20260507094729 | 20 | 52 | 0.0 | 0.0 | 0.00 | 0.00 | 0.00 | 98 | 1018.0 |
| 20260507094610 | 20 | 52 | 0.0 | 0.0 | 0.00 | 0.00 | 0.00 | 98 | 1018.0 |
| 20260507094515 | 20 | 52 | 0.0 | 0.0 | 0.00 | 0.00 | 0.00 | 98 | 1018.0 |
| 20260507094449 | 20 | 52 | 0.0 | 0.0 | 0.00 | 0.00 | 0.00 | 98 | 1018.1 |
| 20260507094337 | 20 | 52 | 0.0 | 0.0 | 0.00 | 0.00 | 0.00 | 98 | 1018.0 |
| 20260507094215 | 20 | 52 | 0.0 | 0.0 | 0.00 | 0.00 | 0.00 | 98 | 1018.1 |
| 20260507094114 | 20 | 52 | 0.0 | 0.0 | 0.00 | 0.00 | 0.00 | 98 | 1018.0 |
| 20260507093906 | 20 | 52 | 0.0 | 0.0 | 0.00 | 0.00 | 0.00 | 98 | 1018.1 |
| 20260507093810 | 20 | 52 | 0.0 | 0.0 | 0.00 | 0.00 | 0.00 | 98 | 1018.0 |
| 20260507093722 | 20 | 52 | 0.0 | 0.0 | 0.00 | 0.00 | 0.00 | 98 | 1018.0 |
| 20260507093624 | 20 | 52 | 0.0 | 0.0 | 0.00 | 0.00 | 0.00 | 98 | 1018.0 |
| 20260507093507 | 20 | 52 | 0.0 | 0.0 | 0.00 | 0.00 | 0.00 | 98 | 1018.1 |
| 20260507093406 | 20 | 52 | 0.0 | 0.0 | 0.00 | 0.00 | 0.00 | 98 | 1018.1 |
| 20260507093302 | 20 | 52 | 0.0 | 0.0 | 0.00 | 0.00 | 0.00 | 98 | 1018.1 |
| 20260507093207 | 20 | 52 | 0.0 | 0.0 | 0.00 | 0.00 | 0.00 | 98 | 1018.1 |
| 20260507093008 | 20 | 52 | 0.0 | 0.0 | 0.00 | 0.00 | 0.00 | 98 | 1018.1 |
| 20260507092911 | 20 | 52 | 0.0 | 0.0 | 0.00 | 0.00 | 0.00 | 98 | 1018.1 |
| 20260507092808 | 20 | 52 | 0.0 | 0.0 | 0.00 | 0.00 | 0.00 | 98 | 1018.1 |
| 20260507092713 | 20 | 52 | 0.0 | 0.0 | 0.00 | 0.00 | 0.00 | 98 | 1018.1 |
| 20260507092603 | 20 | 52 | 0.0 | 0.0 | 0.00 | 0.00 | 0.00 | 98 | 1018.1 |
| 20260507092223 | 20 | 52 | 0.0 | 0.0 | 0.00 | 0.00 | 0.00 | 98 | 1018.2 |
| 20260507092110 | 20 | 52 | 0.0 | 0.0 | 0.00 | 0.00 | 0.00 | 98 | 1018.1 |
| 20260507092017 | 20 | 52 | 0.0 | 0.0 | 0.00 | 0.00 | 0.00 | 98 | 1018.2 |
| 20260507091910 | 20 | 52 | 0.0 | 0.0 | 0.00 | 0.00 | 0.00 | 98 | 1018.2 |
| 20260507091815 | 20 | 52 | 0.0 | 0.0 | 0.00 | 0.00 | 0.00 | 98 | 1018.2 |
| 20260507091704 | 20 | 52 | 0.0 | 0.0 | 0.00 | 0.00 | 0.00 | 98 | 1018.1 |
| 20260507091615 | 20 | 52 | 0.0 | 0.0 | 0.00 | 0.00 | 0.00 | 98 | 1018.1 |
| 20260507091515 | 20 | 52 | 0.0 | 0.0 | 0.00 | 0.00 | 0.00 | 98 | 1018.1 |
| 20260507091403 | 20 | 52 | 0.0 | 0.0 | 0.00 | 0.00 | 0.00 | 98 | 1018.2 |
| 20260507091315 | 20 | 52 | 0.0 | 0.0 | 0.00 | 0.00 | 0.00 | 98 | 1018.2 |
| 20260507091205 | 20 | 52 | 0.0 | 0.0 | 0.00 | 0.00 | 0.00 | 98 | 1018.2 |
| 20260507091119 | 20 | 52 | 0.0 | 0.0 | 0.00 | 0.00 | 0.00 | 98 | 1018.2 |
| 20260507091009 | 20 | 52 | 0.0 | 0.0 | 0.00 | 0.00 | 0.00 | 98 | 1018.0 |
| 20260507090903 | 20 | 52 | 0.0 | 0.0 | 0.00 | 0.00 | 0.00 | 98 | 1018.1 |
| 20260507090812 | 20 | 52 | 0.0 | 0.0 | 0.00 | 0.00 | 0.00 | 98 | 1018.1 |
| 20260507090604 | 20 | 52 | 0.0 | 0.0 | 0.00 | 0.00 | 0.00 | 98 | 1018.1 |
| 20260507090515 | 20 | 52 | 0.0 | 0.0 | 0.00 | 0.00 | 0.00 | 98 | 1018.1 |
| 20260507090417 | 20 | 52 | 0.0 | 0.0 | 0.00 | 0.00 | 0.00 | 98 | 1018.1 |
| 20260507090343 | 20 | 52 | 0.0 | 0.0 | 0.00 | 0.00 | 0.00 | 98 | 1018.1 |
| 20260507090210 | 20 | 52 | 0.0 | 0.0 | 0.00 | 0.00 | 0.00 | 98 | 1018.1 |
| 20260507090117 | 20 | 52 | 0.0 | 0.0 | 0.00 | 0.00 | 0.00 | 98 | 1018.1 |
| 20260507090010 | 20 | 52 | 0.0 | 0.0 | 0.00 | 0.00 | 0.00 | 98 | 1018.0 |
| 20260507085938 | 20 | 52 | 0.0 | 0.0 | 0.00 | 0.00 | 0.00 | 98 | 1018.0 |
| 20260507085717 | 20 | 52 | 0.0 | 0.0 | 0.00 | 0.00 | 0.00 | 98 | 1018.0 |
| 20260507085609 | 20 | 52 | 0.0 | 0.0 | 0.00 | 0.00 | 0.00 | 98 | 1018.1 |
| 20260507085524 | 20 | 52 | 0.0 | 0.0 | 0.00 | 0.00 | 0.00 | 98 | 1018.0 |
| 20260507085413 | 20 | 52 | 0.0 | 0.0 | 0.00 | 0.00 | 0.00 | 98 | 1018.0 |
| 20260507085311 | 20 | 52 | 0.0 | 0.0 | 0.00 | 0.00 | 0.00 | 98 | 1018.0 |
| 20260507085215 | 20 | 52 | 0.0 | 0.0 | 0.00 | 0.00 | 0.00 | 98 | 1018.1 |
| 20260507085101 | 20 | 52 | 0.0 | 0.0 | 0.00 | 0.00 | 0.00 | 98 | 1018.1 |
| 20260507085012 | 20 | 52 | 0.0 | 0.0 | 0.00 | 0.00 | 0.00 | 98 | 1018.1 |
| 20260507084909 | 20 | 52 | 0.0 | 0.0 | 0.00 | 0.00 | 0.00 | 98 | 1018.1 |
| 20260507084801 | 20 | 52 | 0.0 | 0.0 | 0.00 | 0.00 | 0.00 | 98 | 1018.1 |
| 20260507084623 | 20 | 52 | 0.0 | 0.0 | 0.00 | 0.00 | 0.00 | 98 | 1018.1 |
| 20260507084520 | 20 | 52 | 0.0 | 0.0 | 0.00 | 0.00 | 0.00 | 98 | 1018.2 |
| 20260507084409 | 20 | 52 | 0.0 | 0.0 | 0.00 | 0.00 | 0.00 | 98 | 1018.1 |
| 20260507084325 | 20 | 52 | 0.0 | 0.0 | 0.00 | 0.00 | 0.00 | 98 | 1018.2 |
| 20260507084217 | 20 | 52 | 0.0 | 0.0 | 0.00 | 0.00 | 0.00 | 98 | 1018.2 |
| 20260507084109 | 20 | 52 | 0.0 | 0.0 | 0.00 | 0.00 | 0.00 | 98 | 1018.1 |
| 20260507084019 | 20 | 52 | 0.0 | 0.0 | 0.00 | 0.00 | 0.00 | 98 | 1018.2 |
| 20260507083902 | 20 | 52 | 0.0 | 0.0 | 0.00 | 0.00 | 0.00 | 98 | 1018.2 |
| 20260507083703 | 20 | 52 | 0.0 | 0.0 | 0.00 | 0.00 | 0.00 | 98 | 1018.2 |
| 20260507083617 | 20 | 52 | 0.0 | 0.0 | 0.00 | 0.00 | 0.00 | 98 | 1018.2 |
| 20260507083405 | 20 | 52 | 0.0 | 0.0 | 0.00 | 0.00 | 0.00 | 98 | 1018.2 |
| 20260507083303 | 20 | 52 | 0.0 | 0.0 | 0.00 | 0.00 | 0.00 | 98 | 1018.2 |
| 20260507083204 | 20 | 52 | 0.0 | 0.0 | 0.00 | 0.00 | 0.00 | 98 | 1018.2 |
| 20260507083105 | 20 | 52 | 0.0 | 0.0 | 0.00 | 0.00 | 0.00 | 98 | 1018.2 |
| 20260507083007 | 20 | 52 | 0.0 | 0.0 | 0.00 | 0.00 | 0.00 | 98 | 1018.2 |
| 20260507082902 | 20 | 52 | 0.0 | 0.0 | 0.00 | 0.00 | 0.00 | 98 | 1018.2 |
| 20260507082808 | 20 | 52 | 0.0 | 0.0 | 0.00 | 0.00 | 0.00 | 98 | 1018.2 |
| 20260507082711 | 20 | 52 | 0.0 | 0.0 | 0.00 | 0.00 | 0.00 | 98 | 1018.2 |
| 20260507082604 | 20 | 52 | 0.0 | 0.0 | 0.00 | 0.00 | 0.00 | 98 | 1018.2 |
| 20260507082512 | 20 | 52 | 0.0 | 0.0 | 0.00 | 0.00 | 0.00 | 98 | 1018.2 |
| 20260507082418 | 20 | 52 | 0.0 | 0.0 | 0.00 | 0.00 | 0.00 | 98 | 1018.2 |
| 20260507082306 | 20 | 52 | 0.0 | 0.0 | 0.00 | 0.00 | 0.00 | 98 | 1018.2 |
| 20260507082220 | 20 | 52 | 0.0 | 0.0 | 0.00 | 0.00 | 0.00 | 98 | 1018.2 |
| 20260507082105 | 20 | 52 | 0.0 | 0.0 | 0.00 | 0.00 | 0.00 | 98 | 1018.2 |
| 20260507082011 | 20 | 52 | 0.0 | 0.0 | 0.00 | 0.00 | 0.00 | 98 | 1018.2 |
| 20260507081912 | 20 | 52 | 0.0 | 0.0 | 0.00 | 0.00 | 0.00 | 98 | 1018.1 |
| 20260507081806 | 20 | 52 | 0.0 | 0.0 | 0.00 | 0.00 | 0.00 | 98 | 1018.2 |
| 20260507081703 | 20 | 52 | 0.0 | 0.0 | 0.00 | 0.00 | 0.00 | 98 | 1018.2 |
| 20260507081610 | 20 | 52 | 0.0 | 0.0 | 0.00 | 0.00 | 0.00 | 98 | 1018.2 |
| 20260507081526 | 20 | 52 | 0.0 | 0.0 | 0.00 | 0.00 | 0.00 | 98 | 1018.2 |
| 20260507081405 | 20 | 52 | 0.0 | 0.0 | 0.00 | 0.00 | 0.00 | 98 | 1018.2 |
| 20260507081317 | 20 | 52 | 0.0 | 0.0 | 0.00 | 0.00 | 0.00 | 98 | 1018.2 |
| 20260507081202 | 20 | 52 | 0.0 | 0.0 | 0.00 | 0.00 | 0.00 | 98 | 1018.2 |
| 20260507081104 | 20 | 52 | 0.0 | 0.0 | 0.00 | 0.00 | 0.00 | 98 | 1018.2 |
| 20260507081013 | 20 | 52 | 0.0 | 0.0 | 0.00 | 0.00 | 0.00 | 98 | 1018.2 |
| 20260507080804 | 20 | 52 | 0.0 | 0.0 | 0.00 | 0.00 | 0.00 | 98 | 1018.2 |
| 20260507080630 | 20 | 52 | 0.0 | 0.0 | 0.00 | 0.00 | 0.00 | 98 | 1018.2 |
| 20260507080505 | 20 | 52 | 0.0 | 0.0 | 0.00 | 0.00 | 0.00 | 98 | 1018.2 |
| 20260507080413 | 20 | 52 | 0.0 | 0.0 | 0.00 | 0.00 | 0.00 | 97 | 1018.2 |
| 20260507080315 | 20 | 52 | 0.0 | 0.0 | 0.00 | 0.00 | 0.00 | 97 | 1018.2 |
| 20260507080110 | 20 | 52 | 0.0 | 0.0 | 0.00 | 0.00 | 0.00 | 97 | 1018.3 |
| 20260507080016 | 20 | 52 | 0.0 | 0.0 | 0.00 | 0.00 | 0.00 | 97 | 1018.3 |
| 20260507075929 | 20 | 52 | 0.0 | 0.0 | 0.00 | 0.00 | 0.00 | 97 | 1018.3 |
| 20260507075819 | 20 | 52 | 0.0 | 0.0 | 0.00 | 0.00 | 0.00 | 97 | 1018.2 |
| 20260507075704 | 20 | 52 | 0.0 | 0.0 | 0.00 | 0.00 | 0.00 | 97 | 1018.3 |
| 20260507075606 | 20 | 52 | 0.0 | 0.0 | 0.00 | 0.00 | 0.00 | 97 | 1018.3 |
| 20260507075512 | 20 | 52 | 0.0 | 0.0 | 0.00 | 0.00 | 0.00 | 97 | 1018.2 |
| 20260507075410 | 20 | 52 | 0.0 | 0.0 | 0.00 | 0.00 | 0.00 | 97 | 1018.2 |
| 20260507075301 | 20 | 52 | 0.0 | 0.0 | 0.00 | 0.00 | 0.00 | 97 | 1018.2 |
| 20260507075209 | 20 | 52 | 0.0 | 0.0 | 0.00 | 0.00 | 0.00 | 97 | 1018.2 |
| 20260507075115 | 20 | 52 | 0.0 | 0.0 | 0.00 | 0.00 | 0.00 | 97 | 1018.2 |
| 20260507075011 | 20 | 52 | 0.0 | 0.0 | 0.00 | 0.00 | 0.00 | 97 | 1018.2 |
| 20260507074906 | 20 | 52 | 0.0 | 0.0 | 0.00 | 0.00 | 0.00 | 97 | 1018.2 |
| 20260507074816 | 20 | 52 | 0.0 | 0.0 | 0.00 | 0.00 | 0.00 | 97 | 1018.2 |
| 20260507074603 | 20 | 52 | 0.0 | 0.0 | 0.00 | 0.00 | 0.00 | 97 | 1018.1 |
| 20260507074517 | 20 | 52 | 0.0 | 0.0 | 0.00 | 0.00 | 0.00 | 97 | 1018.1 |
| 20260507074401 | 20 | 52 | 0.0 | 0.0 | 0.00 | 0.00 | 0.00 | 97 | 1018.1 |
| 20260507074308 | 20 | 52 | 0.0 | 0.0 | 0.00 | 0.00 | 0.00 | 97 | 1018.1 |
| 20260507074211 | 20 | 52 | 0.0 | 0.0 | 0.00 | 0.00 | 0.00 | 97 | 1018.1 |
| 20260507074111 | 20 | 52 | 0.0 | 0.0 | 0.00 | 0.00 | 0.00 | 97 | 1018.1 |
| 20260507074014 | 20 | 52 | 0.0 | 0.0 | 0.00 | 0.00 | 0.00 | 97 | 1018.1 |
| 20260507073903 | 20 | 52 | 0.0 | 0.0 | 0.00 | 0.00 | 0.00 | 97 | 1018.1 |
| 20260507073710 | 20 | 52 | 0.0 | 0.0 | 0.00 | 0.00 | 0.00 | 97 | 1018.1 |
| 20260507073601 | 20 | 52 | 0.0 | 0.0 | 0.00 | 0.00 | 0.00 | 97 | 1018.1 |
| 20260507073405 | 20 | 52 | 0.0 | 0.0 | 0.00 | 0.00 | 0.00 | 97 | 1018.0 |
| 20260507073310 | 20 | 52 | 0.0 | 0.0 | 0.00 | 0.00 | 0.00 | 97 | 1018.1 |
| 20260507073204 | 20 | 52 | 0.0 | 0.0 | 0.00 | 0.00 | 0.00 | 97 | 1018.0 |
| 20260507073101 | 20 | 52 | 0.0 | 0.0 | 0.00 | 0.00 | 0.00 | 97 | 1018.0 |
| 20260507073006 | 20 | 52 | 0.0 | 0.0 | 0.00 | 0.00 | 0.00 | 97 | 1018.0 |
| 20260507072903 | 20 | 52 | 0.0 | 0.0 | 0.00 | 0.00 | 0.00 | 97 | 1018.0 |
| 20260507072819 | 20 | 52 | 0.0 | 0.0 | 0.00 | 0.00 | 0.00 | 97 | 1018.0 |
| 20260507072706 | 20 | 52 | 0.0 | 0.0 | 0.00 | 0.00 | 0.00 | 97 | 1018.0 |
| 20260507072611 | 20 | 52 | 0.0 | 0.0 | 0.00 | 0.00 | 0.00 | 97 | 1018.0 |
| 20260507072512 | 20 | 52 | 0.0 | 0.0 | 0.00 | 0.00 | 0.00 | 97 | 1018.0 |
| 20260507072416 | 20 | 52 | 0.0 | 0.0 | 0.00 | 0.00 | 0.00 | 97 | 1017.9 |
| 20260507072109 | 20 | 52 | 0.0 | 0.0 | 0.00 | 0.00 | 0.00 | 97 | 1017.9 |
| 20260507071941 | 20 | 52 | 0.0 | 0.0 | 0.00 | 0.00 | 0.00 | 97 | 1018.0 |
| 20260507071809 | 20 | 52 | 0.0 | 0.0 | 0.00 | 0.00 | 0.00 | 97 | 1017.9 |
| 20260507071711 | 20 | 52 | 0.0 | 0.0 | 0.00 | 0.00 | 0.00 | 97 | 1017.9 |
| 20260507071609 | 20 | 52 | 0.0 | 0.0 | 0.00 | 0.00 | 0.00 | 97 | 1017.9 |
| 20260507071407 | 20 | 52 | 0.0 | 0.0 | 0.00 | 0.00 | 0.00 | 96 | 1017.9 |
| 20260507071306 | 20 | 52 | 0.0 | 0.0 | 0.00 | 0.00 | 0.00 | 96 | 1017.9 |
| 20260507071217 | 20 | 52 | 0.0 | 0.0 | 0.00 | 0.00 | 0.00 | 96 | 1017.8 |
| 20260507071106 | 20 | 52 | 0.0 | 0.0 | 0.00 | 0.00 | 0.00 | 96 | 1017.9 |
| 20260507071042 | 20 | 52 | 0.0 | 0.0 | 0.00 | 0.00 | 0.00 | 96 | 1017.9 |
| 20260507070909 | 20 | 52 | 0.0 | 0.0 | 0.00 | 0.00 | 0.00 | 96 | 1017.8 |
| 20260507070806 | 21 | 52 | 0.0 | 0.0 | 0.00 | 0.00 | 0.00 | 96 | 1017.8 |
| 20260507070608 | 21 | 52 | 0.0 | 0.0 | 0.00 | 0.00 | 0.00 | 96 | 1017.8 |
| 20260507070511 | 21 | 52 | 0.0 | 0.0 | 0.00 | 0.00 | 0.00 | 96 | 1017.8 |
| 20260507070425 | 21 | 52 | 0.0 | 0.0 | 0.00 | 0.00 | 0.00 | 96 | 1017.8 |
| 20260507070322 | 21 | 52 | 0.0 | 0.0 | 0.00 | 0.00 | 0.00 | 96 | 1017.8 |
| 20260507070206 | 21 | 52 | 0.0 | 0.0 | 0.00 | 0.00 | 0.00 | 96 | 1017.8 |
| 20260507070013 | 21 | 52 | 0.0 | 0.0 | 0.00 | 0.00 | 0.00 | 96 | 1017.8 |
| 20260507065902 | 21 | 52 | 0.0 | 0.0 | 0.00 | 0.00 | 0.00 | 96 | 1017.7 |
| 20260507065703 | 21 | 52 | 0.0 | 0.0 | 0.00 | 0.00 | 0.00 | 96 | 1017.7 |
| 20260507065614 | 21 | 52 | 0.0 | 0.0 | 0.00 | 0.00 | 0.00 | 96 | 1017.7 |
| 20260507065511 | 21 | 52 | 0.0 | 0.0 | 0.00 | 0.00 | 0.00 | 96 | 1017.7 |
| 20260507065318 | 21 | 52 | 0.0 | 0.0 | 0.00 | 0.00 | 0.00 | 96 | 1017.7 |
| 20260507065210 | 21 | 52 | 0.0 | 0.0 | 0.00 | 0.00 | 0.00 | 96 | 1017.6 |
| 20260507065108 | 21 | 52 | 0.0 | 0.0 | 0.00 | 0.00 | 0.00 | 96 | 1017.6 |
| 20260507064916 | 21 | 52 | 0.0 | 0.0 | 0.00 | 0.00 | 0.00 | 96 | 1017.6 |
| 20260507064805 | 21 | 52 | 0.0 | 0.0 | 0.00 | 0.00 | 0.00 | 96 | 1017.6 |
| 20260507064712 | 21 | 52 | 0.0 | 0.0 | 0.00 | 0.00 | 0.00 | 96 | 1017.6 |
| 20260507064607 | 21 | 52 | 0.0 | 0.0 | 0.00 | 0.00 | 0.00 | 96 | 1017.6 |
| 20260507064403 | 21 | 52 | 0.0 | 0.0 | 0.00 | 0.00 | 0.00 | 96 | 1017.6 |
| 20260507064306 | 21 | 52 | 0.0 | 0.0 | 0.00 | 0.00 | 0.00 | 96 | 1017.6 |
| 20260507064221 | 21 | 52 | 0.0 | 0.0 | 0.00 | 0.00 | 0.00 | 96 | 1017.5 |
| 20260507064113 | 21 | 52 | 0.0 | 0.0 | 0.00 | 0.00 | 0.00 | 96 | 1017.5 |
| 20260507064016 | 21 | 52 | 0.0 | 0.0 | 0.00 | 0.00 | 0.00 | 96 | 1017.4 |
| 20260507063902 | 21 | 52 | 0.0 | 0.0 | 0.00 | 0.00 | 0.00 | 96 | 1017.4 |
| 20260507063806 | 21 | 52 | 0.0 | 0.0 | 0.00 | 0.00 | 0.00 | 96 | 1017.4 |
| 20260507063732 | 21 | 52 | 0.0 | 0.0 | 0.00 | 0.00 | 0.00 | 96 | 1017.4 |
| 20260507063622 | 21 | 52 | 0.0 | 0.0 | 0.00 | 0.00 | 0.00 | 96 | 1017.5 |
| 20260507063509 | 21 | 52 | 0.0 | 0.0 | 0.00 | 0.00 | 0.00 | 96 | 1017.4 |
| 20260507063409 | 21 | 52 | 0.0 | 0.0 | 0.00 | 0.00 | 0.00 | 96 | 1017.4 |
| 20260507063321 | 21 | 52 | 0.0 | 0.0 | 0.00 | 0.00 | 0.00 | 96 | 1017.3 |
| 20260507063015 | 21 | 52 | 0.0 | 0.0 | 0.00 | 0.00 | 0.00 | 96 | 1017.3 |
| 20260507062832 | 21 | 52 | 0.0 | 0.0 | 0.00 | 0.00 | 0.00 | 96 | 1017.3 |
| 20260507062708 | 21 | 52 | 0.0 | 0.0 | 0.00 | 0.00 | 0.00 | 95 | 1017.3 |
| 20260507062612 | 21 | 52 | 0.0 | 0.0 | 0.00 | 0.00 | 0.00 | 95 | 1017.3 |
| 20260507062413 | 21 | 52 | 0.0 | 0.0 | 0.00 | 0.00 | 0.00 | 95 | 1017.2 |
| 20260507062306 | 21 | 52 | 0.0 | 0.0 | 0.00 | 0.00 | 0.00 | 95 | 1017.2 |
| 20260507062215 | 21 | 52 | 0.0 | 0.0 | 0.00 | 0.00 | 0.00 | 95 | 1017.2 |
| 20260507062026 | 21 | 52 | 0.0 | 0.0 | 0.00 | 0.00 | 0.00 | 95 | 1017.1 |
| 20260507061902 | 21 | 52 | 0.0 | 0.0 | 0.00 | 0.00 | 0.00 | 95 | 1017.0 |
| 20260507061818 | 21 | 52 | 0.0 | 0.0 | 0.00 | 0.00 | 0.00 | 95 | 1017.0 |
| 20260507061712 | 21 | 52 | 0.0 | 0.0 | 0.00 | 0.00 | 0.00 | 95 | 1017.1 |
| 20260507061602 | 21 | 52 | 0.0 | 0.0 | 0.00 | 0.00 | 0.00 | 95 | 1017.0 |
| 20260507061511 | 21 | 52 | 0.0 | 0.0 | 0.00 | 0.00 | 0.00 | 95 | 1017.0 |
| 20260507061406 | 21 | 52 | 0.0 | 0.0 | 0.00 | 0.00 | 0.00 | 95 | 1017.0 |
| 20260507061312 | 21 | 52 | 0.0 | 0.0 | 0.00 | 0.00 | 0.00 | 95 | 1017.0 |
| 20260507061212 | 21 | 52 | 0.0 | 0.0 | 0.00 | 0.00 | 0.00 | 95 | 1016.9 |
| 20260507061126 | 21 | 52 | 0.0 | 0.0 | 0.00 | 0.00 | 0.00 | 95 | 1017.0 |
| 20260507061007 | 21 | 52 | 0.0 | 0.0 | 0.00 | 0.00 | 0.00 | 95 | 1017.1 |
| 20260507060909 | 21 | 52 | 0.0 | 0.0 | 0.00 | 0.00 | 0.00 | 95 | 1016.9 |
| 20260507060810 | 21 | 52 | 0.0 | 0.0 | 0.00 | 0.00 | 0.00 | 95 | 1016.9 |
| 20260507060706 | 21 | 52 | 0.0 | 0.0 | 0.00 | 0.00 | 0.00 | 95 | 1016.8 |
| 20260507060511 | 22 | 52 | 0.0 | 0.0 | 0.00 | 0.00 | 0.00 | 95 | 1016.9 |
| 20260507060413 | 22 | 52 | 0.0 | 0.0 | 0.00 | 0.00 | 0.00 | 95 | 1017.0 |
| 20260507060312 | 22 | 52 | 0.0 | 0.0 | 0.00 | 0.00 | 0.00 | 95 | 1016.9 |
| 20260507060218 | 22 | 52 | 0.0 | 0.0 | 0.00 | 0.00 | 0.00 | 94 | 1016.9 |
| 20260507055909 | 22 | 52 | 0.0 | 0.0 | 0.00 | 0.00 | 0.00 | 94 | 1016.9 |
| 20260507055803 | 22 | 52 | 0.0 | 0.0 | 0.00 | 0.00 | 0.00 | 94 | 1016.8 |
| 20260507055705 | 22 | 52 | 0.0 | 0.0 | 0.00 | 0.00 | 0.00 | 94 | 1016.8 |
| 20260507055621 | 22 | 52 | 0.0 | 0.0 | 0.00 | 0.00 | 0.00 | 94 | 1016.8 |
| 20260507055507 | 22 | 52 | 0.0 | 0.0 | 0.00 | 0.00 | 0.00 | 94 | 1016.8 |
| 20260507055410 | 22 | 52 | 0.0 | 0.0 | 0.00 | 0.00 | 0.00 | 94 | 1016.8 |
| 20260507055204 | 22 | 52 | 0.0 | 0.0 | 0.00 | 0.00 | 0.00 | 93 | 1016.8 |
| 20260507055109 | 22 | 52 | 0.0 | 0.0 | 0.00 | 0.00 | 0.00 | 93 | 1016.8 |
| 20260507054810 | 22 | 52 | 0.0 | 0.0 | 0.00 | 0.00 | 0.00 | 93 | 1016.7 |
| 20260507054722 | 22 | 52 | 0.0 | 0.0 | 0.00 | 0.00 | 0.00 | 93 | 1016.7 |
| 20260507054602 | 22 | 52 | 0.0 | 0.0 | 0.00 | 0.00 | 0.00 | 93 | 1016.7 |
| 20260507054519 | 22 | 52 | 0.0 | 0.0 | 0.00 | 0.00 | 0.00 | 93 | 1016.7 |
| 20260507054405 | 22 | 52 | 0.0 | 0.0 | 0.00 | 0.00 | 0.00 | 93 | 1016.7 |
| 20260507054320 | 22 | 52 | 0.0 | 0.0 | 0.00 | 0.00 | 0.00 | 93 | 1016.6 |
| 20260507054241 | 22 | 52 | 0.0 | 0.0 | 0.00 | 0.00 | 0.00 | 93 | 1016.6 |
| 20260507053906 | 22 | 52 | 0.0 | 0.0 | 0.00 | 0.00 | 0.00 | 92 | 1016.6 |
| 20260507053805 | 22 | 52 | 0.0 | 0.0 | 0.00 | 0.00 | 0.00 | 92 | 1016.5 |
| 20260507053719 | 22 | 52 | 0.0 | 0.0 | 0.00 | 0.00 | 0.00 | 92 | 1016.5 |
| 20260507053605 | 22 | 52 | 0.0 | 0.0 | 0.00 | 0.00 | 0.00 | 92 | 1016.5 |
| 20260507053415 | 22 | 52 | 0.0 | 0.0 | 0.00 | 0.00 | 0.00 | 92 | 1016.5 |
| 20260507053326 | 22 | 52 | 0.0 | 0.0 | 0.00 | 0.00 | 0.00 | 92 | 1016.4 |
| 20260507053218 | 22 | 52 | 0.0 | 0.0 | 0.00 | 0.00 | 0.00 | 92 | 1016.5 |
| 20260507053145 | 22 | 52 | 0.0 | 0.0 | 0.00 | 0.00 | 0.00 | 92 | 1016.5 |
| 20260507053016 | 22 | 52 | 0.0 | 0.0 | 0.00 | 0.00 | 0.00 | 92 | 1016.5 |
| 20260507052926 | 22 | 52 | 0.0 | 0.0 | 0.00 | 0.00 | 0.00 | 92 | 1016.4 |
| 20260507052804 | 22 | 52 | 0.0 | 0.0 | 0.00 | 0.00 | 0.00 | 92 | 1016.4 |
| 20260507052708 | 22 | 52 | 0.0 | 0.0 | 0.00 | 0.00 | 0.00 | 91 | 1016.4 |
| 20260507052607 | 23 | 52 | 0.0 | 0.0 | 0.00 | 0.00 | 0.00 | 91 | 1016.4 |
| 20260507052411 | 23 | 52 | 0.0 | 0.0 | 0.00 | 0.00 | 0.00 | 91 | 1016.3 |
| 20260507052306 | 23 | 52 | 0.0 | 0.0 | 0.00 | 0.00 | 0.00 | 91 | 1016.3 |
| 20260507052208 | 23 | 52 | 0.0 | 0.0 | 0.00 | 0.00 | 0.00 | 90 | 1016.3 |
| 20260507052008 | 23 | 52 | 0.0 | 0.0 | 0.00 | 0.00 | 0.00 | 90 | 1016.3 |
| 20260507051909 | 23 | 52 | 0.0 | 0.0 | 0.00 | 0.00 | 0.00 | 90 | 1016.3 |
| 20260507051804 | 23 | 52 | 0.0 | 0.0 | 0.00 | 0.00 | 0.00 | 90 | 1016.3 |
| 20260507051712 | 23 | 52 | 0.0 | 0.0 | 0.00 | 0.00 | 0.00 | 90 | 1016.3 |
| 20260507051605 | 23 | 52 | 0.0 | 0.0 | 0.00 | 0.00 | 0.00 | 90 | 1016.3 |
| 20260507051515 | 23 | 52 | 0.0 | 0.0 | 0.00 | 0.00 | 0.00 | 90 | 1016.2 |
| 20260507051413 | 23 | 52 | 0.0 | 0.0 | 0.00 | 0.00 | 0.00 | 90 | 1016.2 |
| 20260507051316 | 23 | 52 | 0.0 | 0.0 | 0.00 | 0.00 | 0.00 | 90 | 1016.2 |
| 20260507051203 | 23 | 52 | 0.0 | 0.0 | 0.00 | 0.00 | 0.00 | 89 | 1016.1 |
| 20260507051124 | 23 | 52 | 0.0 | 0.0 | 0.00 | 0.00 | 0.00 | 89 | 1016.1 |
| 20260507051016 | 23 | 52 | 0.0 | 0.0 | 0.00 | 0.00 | 0.00 | 89 | 1016.2 |
| 20260507050809 | 23 | 52 | 0.0 | 0.0 | 0.00 | 0.00 | 0.00 | 89 | 1016.2 |
| 20260507050712 | 23 | 52 | 0.0 | 0.0 | 0.00 | 0.00 | 0.00 | 89 | 1016.1 |
| 20260507050414 | 23 | 52 | 0.0 | 0.0 | 0.00 | 0.00 | 0.00 | 88 | 1016.1 |
| 20260507050224 | 23 | 52 | 0.0 | 0.0 | 0.00 | 0.00 | 0.00 | 88 | 1016.1 |
| 20260507050106 | 23 | 52 | 0.0 | 0.0 | 0.00 | 0.00 | 0.00 | 88 | 1016.0 |
| 20260507045905 | 23 | 52 | 0.0 | 0.0 | 0.00 | 0.00 | 0.00 | 88 | 1016.0 |
| 20260507045703 | 23 | 52 | 0.0 | 1.6 | 0.00 | 0.00 | 0.00 | 88 | 1015.9 |
| 20260507045614 | 23 | 52 | 0.0 | 1.6 | 0.00 | 0.00 | 0.00 | 88 | 1015.9 |
| 20260507045520 | 23 | 52 | 0.0 | 1.6 | 0.00 | 0.00 | 0.00 | 88 | 1015.8 |
| 20260507045413 | 24 | 52 | 0.0 | 1.6 | 0.00 | 0.00 | 0.00 | 87 | 1015.9 |
| 20260507045336 | 24 | 52 | 0.0 | 1.6 | 0.00 | 0.00 | 0.00 | 87 | 1015.8 |
| 20260507045206 | 24 | 52 | 0.0 | 1.6 | 0.00 | 0.00 | 0.00 | 87 | 1015.8 |
| 20260507045152 | 24 | 52 | 0.0 | 1.6 | 0.00 | 0.00 | 0.00 | 87 | 1015.8 |
| 20260507045006 | 24 | 52 | 0.0 | 1.6 | 0.00 | 0.00 | 0.00 | 87 | 1015.8 |
| 20260507044915 | 24 | 52 | 0.0 | 1.6 | 0.00 | 0.00 | 0.00 | 87 | 1015.8 |
| 20260507044711 | 24 | 52 | 0.0 | 1.6 | 0.00 | 0.00 | 0.00 | 87 | 1015.8 |
| 20260507044623 | 24 | 52 | 0.0 | 1.6 | 0.00 | 0.00 | 0.00 | 86 | 1015.8 |
| 20260507044528 | 24 | 52 | 0.0 | 1.6 | 0.00 | 0.00 | 0.00 | 86 | 1015.9 |
| 20260507044410 | 24 | 52 | 0.0 | 3.2 | 0.00 | 0.00 | 0.00 | 86 | 1015.8 |
| 20260507044324 | 24 | 52 | 0.0 | 3.2 | 0.00 | 0.00 | 0.00 | 86 | 1015.8 |
| 20260507044235 | 24 | 52 | 0.0 | 3.2 | 0.00 | 0.00 | 0.00 | 86 | 1015.9 |
| 20260507044113 | 24 | 52 | 0.0 | 3.2 | 0.00 | 0.00 | 0.00 | 86 | 1015.9 |
| 20260507044011 | 24 | 52 | 0.0 | 3.2 | 0.00 | 0.00 | 0.00 | 86 | 1015.9 |
| 20260507043916 | 24 | 52 | 0.0 | 3.2 | 0.00 | 0.00 | 0.00 | 86 | 1015.8 |
| 20260507043824 | 24 | 52 | 0.0 | 3.2 | 0.00 | 0.00 | 0.00 | 86 | 1015.8 |
| 20260507043707 | 24 | 52 | 0.0 | 3.2 | 0.00 | 0.00 | 0.00 | 86 | 1015.8 |
| 20260507043605 | 24 | 52 | 0.0 | 3.2 | 0.00 | 0.00 | 0.00 | 86 | 1015.8 |
| 20260507043510 | 24 | 17 | 0.0 | 3.2 | 0.00 | 0.00 | 0.00 | 86 | 1015.8 |
| 20260507043412 | 24 | 17 | 0.0 | 3.2 | 0.00 | 0.00 | 0.00 | 86 | 1015.8 |
| 20260507043306 | 24 | 17 | 0.0 | 1.6 | 0.00 | 0.00 | 0.00 | 86 | 1015.9 |
| 20260507043209 | 24 | 17 | 0.0 | 3.2 | 0.00 | 0.00 | 0.00 | 86 | 1015.9 |
| 20260507043102 | 25 | 17 | 0.0 | 3.2 | 0.00 | 0.00 | 0.00 | 86 | 1015.8 |
| 20260507043011 | 25 | 17 | 0.0 | 3.2 | 0.00 | 0.00 | 0.00 | 86 | 1015.8 |
| 20260507042935 | 25 | 17 | 0.0 | 3.2 | 0.00 | 0.00 | 0.00 | 85 | 1015.8 |
| 20260507042813 | 25 | 17 | 1.6 | 3.2 | 0.00 | 0.00 | 0.00 | 85 | 1015.7 |
| 20260507042712 | 25 | 17 | 1.6 | 3.2 | 0.00 | 0.00 | 0.00 | 86 | 1015.7 |
| 20260507042625 | 25 | 25 | 0.0 | 3.2 | 0.00 | 0.00 | 0.00 | 86 | 1015.7 |
| 20260507042511 | 25 | 353 | 0.0 | 3.2 | 0.00 | 0.00 | 0.00 | 86 | 1015.6 |
| 20260507042331 | 25 | 353 | 1.6 | 3.2 | 0.00 | 0.00 | 0.00 | 86 | 1015.6 |
| 20260507042204 | 25 | 5 | 1.6 | 3.2 | 0.00 | 0.00 | 0.00 | 85 | 1015.6 |
| 20260507042113 | 25 | 351 | 0.0 | 3.2 | 0.00 | 0.00 | 0.00 | 86 | 1015.6 |
| 20260507042042 | 25 | 60 | 0.0 | 3.2 | 0.00 | 0.00 | 0.00 | 86 | 1015.6 |
| 20260507041912 | 25 | 60 | 1.6 | 3.2 | 0.00 | 0.00 | 0.00 | 86 | 1015.6 |
| 20260507041821 | 25 | 60 | 1.6 | 3.2 | 0.00 | 0.00 | 0.00 | 86 | 1015.7 |
| 20260507041712 | 25 | 60 | 1.6 | 3.2 | 0.00 | 0.00 | 0.00 | 86 | 1015.6 |
| 20260507041622 | 25 | 337 | 0.0 | 3.2 | 0.00 | 0.00 | 0.00 | 86 | 1015.6 |
| 20260507041507 | 25 | 334 | 1.6 | 3.2 | 0.00 | 0.00 | 0.00 | 85 | 1015.6 |
| 20260507041308 | 25 | 47 | 1.6 | 4.8 | 0.00 | 0.00 | 0.00 | 85 | 1015.7 |
| 20260507041210 | 25 | 27 | 0.0 | 8.0 | 0.00 | 0.00 | 0.00 | 85 | 1015.6 |
| 20260507041129 | 25 | 27 | 0.0 | 8.0 | 0.00 | 0.00 | 0.00 | 85 | 1015.6 |
| 20260507041015 | 25 | 27 | 1.6 | 8.0 | 0.00 | 0.00 | 0.00 | 85 | 1015.6 |
| 20260507040910 | 25 | 20 | 0.0 | 8.0 | 0.00 | 0.00 | 0.00 | 85 | 1015.6 |
| 20260507040713 | 25 | 68 | 0.0 | 8.0 | 0.00 | 0.00 | 0.00 | 85 | 1015.5 |
| 20260507040612 | 25 | 68 | 1.6 | 8.0 | 0.00 | 0.00 | 0.00 | 85 | 1015.5 |
| 20260507040505 | 25 | 68 | 3.2 | 8.0 | 0.00 | 0.00 | 0.00 | 85 | 1015.5 |
| 20260507040308 | 25 | 52 | 3.2 | 8.0 | 0.00 | 0.00 | 0.00 | 84 | 1015.5 |
| 20260507040107 | 25 | 57 | 3.2 | 6.4 | 0.00 | 0.00 | 0.00 | 84 | 1015.5 |
| 20260507040010 | 25 | 47 | 3.2 | 6.4 | 0.00 | 0.00 | 0.00 | 84 | 1015.5 |
| 20260507035804 | 25 | 38 | 1.6 | 6.4 | 0.00 | 0.00 | 0.00 | 85 | 1015.5 |
| 20260507035723 | 25 | 12 | 1.6 | 6.4 | 0.00 | 0.00 | 0.00 | 85 | 1015.4 |
| 20260507035631 | 25 | 13 | 1.6 | 6.4 | 0.00 | 0.00 | 0.00 | 84 | 1015.5 |
| 20260507035417 | 25 | 52 | 1.6 | 8.0 | 0.00 | 0.00 | 0.00 | 85 | 1015.4 |
| 20260507035306 | 25 | 38 | 1.6 | 8.0 | 0.00 | 0.00 | 0.00 | 84 | 1015.4 |
| 20260507035206 | 25 | 316 | 1.6 | 8.0 | 0.00 | 0.00 | 0.00 | 84 | 1015.4 |
| 20260507035109 | 25 | 35 | 3.2 | 8.0 | 0.00 | 0.00 | 0.00 | 84 | 1015.4 |
| 20260507035017 | 25 | 81 | 3.2 | 8.0 | 0.00 | 0.00 | 0.00 | 84 | 1015.4 |
| 20260507034912 | 25 | 18 | 3.2 | 8.0 | 0.00 | 0.00 | 0.00 | 83 | 1015.4 |
| 20260507034810 | 25 | 60 | 4.8 | 8.0 | 0.00 | 0.00 | 0.00 | 83 | 1015.4 |
| 20260507034604 | 25 | 47 | 3.2 | 8.0 | 0.00 | 0.00 | 0.00 | 83 | 1015.5 |
| 20260507034506 | 25 | 42 | 3.2 | 8.0 | 0.00 | 0.00 | 0.00 | 83 | 1015.5 |
| 20260507034403 | 25 | 336 | 3.2 | 6.4 | 0.00 | 0.00 | 0.00 | 84 | 1015.4 |
| 20260507034325 | 25 | 342 | 3.2 | 6.4 | 0.00 | 0.00 | 0.00 | 84 | 1015.4 |
| 20260507034205 | 25 | 37 | 4.8 | 6.4 | 0.00 | 0.00 | 0.00 | 83 | 1015.4 |
| 20260507033902 | 25 | 318 | 3.2 | 6.4 | 0.00 | 0.00 | 0.00 | 83 | 1015.4 |
| 20260507033719 | 25 | 37 | 3.2 | 6.4 | 0.00 | 0.00 | 0.00 | 83 | 1015.5 |
| 20260507033615 | 25 | 47 | 3.2 | 6.4 | 0.00 | 0.00 | 0.00 | 83 | 1015.4 |
| 20260507033509 | 25 | 31 | 3.2 | 6.4 | 0.00 | 0.00 | 0.00 | 83 | 1015.4 |
| 20260507033407 | 25 | 65 | 3.2 | 6.4 | 0.00 | 0.00 | 0.00 | 83 | 1015.4 |
| 20260507033201 | 25 | 57 | 0.0 | 6.4 | 0.00 | 0.00 | 0.00 | 83 | 1015.4 |
| 20260507033005 | 25 | 47 | 1.6 | 6.4 | 0.00 | 0.00 | 0.00 | 83 | 1015.4 |
| 20260507032727 | 25 | 61 | 3.2 | 6.4 | 0.00 | 0.00 | 0.00 | 83 | 1015.4 |
| 20260507032621 | 25 | 82 | 1.6 | 6.4 | 0.00 | 0.00 | 0.00 | 83 | 1015.4 |
| 20260507032507 | 26 | 47 | 3.2 | 6.4 | 0.00 | 0.00 | 0.00 | 82 | 1015.3 |
| 20260507032309 | 26 | 47 | 3.2 | 8.0 | 0.00 | 0.00 | 0.00 | 82 | 1015.4 |
| 20260507032218 | 26 | 47 | 3.2 | 8.0 | 0.00 | 0.00 | 0.00 | 82 | 1015.4 |
| 20260507032103 | 26 | 63 | 3.2 | 8.0 | 0.00 | 0.00 | 0.00 | 82 | 1015.3 |
| 20260507032011 | 26 | 52 | 3.2 | 8.0 | 0.00 | 0.00 | 0.00 | 83 | 1015.3 |
| 20260507031903 | 26 | 106 | 3.2 | 8.0 | 0.00 | 0.00 | 0.00 | 83 | 1015.3 |
| 20260507031802 | 26 | 47 | 1.6 | 8.0 | 0.00 | 0.00 | 0.00 | 83 | 1015.3 |
| 20260507031603 | 26 | 146 | 3.2 | 8.0 | 0.00 | 0.00 | 0.00 | 83 | 1015.2 |
| 20260507031518 | 26 | 17 | 4.8 | 8.0 | 0.00 | 0.00 | 0.00 | 83 | 1015.2 |
| 20260507031406 | 26 | 47 | 3.2 | 8.0 | 0.00 | 0.00 | 0.00 | 83 | 1015.2 |
| 20260507031311 | 26 | 30 | 1.6 | 6.4 | 0.00 | 0.00 | 0.00 | 84 | 1015.2 |
| 20260507031012 | 26 | 60 | 3.2 | 8.0 | 0.00 | 0.00 | 0.00 | 83 | 1015.3 |
| 20260507030910 | 26 | 67 | 3.2 | 8.0 | 0.00 | 0.00 | 0.00 | 83 | 1015.3 |
| 20260507030709 | 26 | 35 | 1.6 | 8.0 | 0.00 | 0.00 | 0.00 | 83 | 1015.2 |
| 20260507030604 | 26 | 94 | 1.6 | 8.0 | 0.00 | 0.00 | 0.00 | 83 | 1015.1 |
| 20260507030516 | 26 | 94 | 3.2 | 8.0 | 0.00 | 0.00 | 0.00 | 83 | 1015.1 |
| 20260507030403 | 26 | 91 | 4.8 | 8.0 | 0.00 | 0.00 | 0.00 | 83 | 1015.1 |
| 20260507030321 | 26 | 42 | 4.8 | 8.0 | 0.00 | 0.00 | 0.00 | 83 | 1015.1 |
| 20260507030207 | 26 | 74 | 1.6 | 6.4 | 0.00 | 0.00 | 0.00 | 83 | 1015.1 |
| 20260507030104 | 25 | 83 | 1.6 | 6.4 | 0.00 | 0.00 | 0.00 | 83 | 1015.0 |
| 20260507030017 | 25 | 27 | 3.2 | 6.4 | 0.00 | 0.00 | 0.00 | 83 | 1015.1 |
| 20260507025905 | 25 | 76 | 4.8 | 6.4 | 0.00 | 0.00 | 0.00 | 82 | 1015.1 |
| 20260507025804 | 26 | 66 | 4.8 | 6.4 | 0.00 | 0.00 | 0.00 | 82 | 1015.1 |
| 20260507025704 | 26 | 52 | 3.2 | 6.4 | 0.00 | 0.00 | 0.00 | 83 | 1015.1 |
| 20260507025610 | 26 | 59 | 1.6 | 4.8 | 0.00 | 0.00 | 0.00 | 83 | 1015.0 |
| 20260507025414 | 26 | 99 | 1.6 | 4.8 | 0.00 | 0.00 | 0.00 | 82 | 1015.0 |
| 20260507025313 | 25 | 123 | 1.6 | 4.8 | 0.00 | 0.00 | 0.00 | 83 | 1015.0 |
| 20260507025212 | 25 | 29 | 1.6 | 4.8 | 0.00 | 0.00 | 0.00 | 83 | 1014.9 |
| 20260507025108 | 25 | 29 | 1.6 | 4.8 | 0.00 | 0.00 | 0.00 | 83 | 1015.0 |
| 20260507024705 | 25 | 52 | 1.6 | 4.8 | 0.00 | 0.00 | 0.00 | 83 | 1014.9 |
| 20260507024619 | 25 | 129 | 1.6 | 4.8 | 0.00 | 0.00 | 0.00 | 83 | 1014.9 |
| 20260507024511 | 25 | 153 | 1.6 | 4.8 | 0.00 | 0.00 | 0.00 | 83 | 1014.9 |
| 20260507024411 | 25 | 122 | 1.6 | 6.4 | 0.00 | 0.00 | 0.00 | 83 | 1014.9 |
| 20260507024322 | 25 | 81 | 1.6 | 8.0 | 0.00 | 0.00 | 0.00 | 83 | 1014.8 |
| 20260507024217 | 25 | 47 | 1.6 | 8.0 | 0.00 | 0.00 | 0.00 | 83 | 1014.9 |
| 20260507024110 | 25 | 313 | 3.2 | 8.0 | 0.00 | 0.00 | 0.00 | 83 | 1014.8 |
| 20260507024016 | 25 | 47 | 3.2 | 8.0 | 0.00 | 0.00 | 0.00 | 83 | 1014.9 |
| 20260507023801 | 25 | 25 | 1.6 | 8.0 | 0.00 | 0.00 | 0.00 | 83 | 1014.9 |
| 20260507023607 | 25 | 42 | 4.8 | 8.0 | 0.00 | 0.00 | 0.00 | 82 | 1014.8 |
| 20260507023507 | 25 | 89 | 6.4 | 8.0 | 0.00 | 0.00 | 0.00 | 82 | 1014.9 |
| 20260507023405 | 26 | 80 | 3.2 | 8.0 | 0.00 | 0.00 | 0.00 | 82 | 1014.9 |
| 20260507023310 | 26 | 35 | 3.2 | 8.0 | 0.00 | 0.00 | 0.00 | 83 | 1014.9 |
| 20260507023208 | 26 | 29 | 3.2 | 8.0 | 0.00 | 0.00 | 0.00 | 82 | 1014.9 |
| 20260507023120 | 26 | 42 | 4.8 | 9.7 | 0.00 | 0.00 | 0.00 | 82 | 1014.9 |
| 20260507023017 | 26 | 29 | 4.8 | 9.7 | 0.00 | 0.00 | 0.00 | 82 | 1014.9 |
| 20260507022906 | 26 | 351 | 4.8 | 9.7 | 0.00 | 0.00 | 0.00 | 82 | 1014.9 |
| 20260507022707 | 26 | 32 | 1.6 | 9.7 | 0.00 | 0.00 | 0.00 | 83 | 1014.8 |
| 20260507022631 | 26 | 52 | 1.6 | 9.7 | 0.00 | 0.00 | 0.00 | 83 | 1014.8 |
| 20260507022511 | 26 | 89 | 3.2 | 9.7 | 0.00 | 0.00 | 0.00 | 82 | 1014.9 |
| 20260507022314 | 26 | 23 | 4.8 | 9.7 | 0.00 | 0.00 | 0.00 | 82 | 1014.8 |
| 20260507022234 | 26 | 37 | 3.2 | 9.7 | 0.00 | 0.00 | 0.00 | 83 | 1015.0 |
| 20260507022114 | 26 | 26 | 3.2 | 8.0 | 0.00 | 0.00 | 0.00 | 83 | 1014.9 |
| 20260507022012 | 26 | 341 | 3.2 | 8.0 | 0.00 | 0.00 | 0.00 | 82 | 1014.9 |
| 20260507021809 | 26 | 13 | 3.2 | 8.0 | 0.00 | 0.00 | 0.00 | 83 | 1015.0 |
| 20260507021704 | 26 | 93 | 3.2 | 8.0 | 0.00 | 0.00 | 0.00 | 82 | 1015.1 |
| 20260507021601 | 26 | 18 | 3.2 | 8.0 | 0.00 | 0.00 | 0.00 | 82 | 1015.1 |
| 20260507021520 | 26 | 42 | 3.2 | 8.0 | 0.00 | 0.00 | 0.00 | 82 | 1015.1 |
| 20260507021405 | 26 | 65 | 3.2 | 8.0 | 0.00 | 0.00 | 0.00 | 82 | 1015.1 |
| 20260507021321 | 26 | 37 | 3.2 | 8.0 | 0.00 | 0.00 | 0.00 | 82 | 1015.0 |
| 20260507021215 | 26 | 331 | 4.8 | 8.0 | 0.00 | 0.00 | 0.00 | 82 | 1015.0 |
| 20260507021107 | 26 | 42 | 3.2 | 8.0 | 0.00 | 0.00 | 0.00 | 81 | 1015.0 |
| 20260507021015 | 26 | 29 | 3.2 | 8.0 | 0.00 | 0.00 | 0.00 | 82 | 1015.0 |
| 20260507020821 | 26 | 129 | 3.2 | 8.0 | 0.00 | 0.00 | 0.00 | 81 | 1015.0 |
| 20260507020719 | 26 | 52 | 4.8 | 8.0 | 0.00 | 0.00 | 0.00 | 81 | 1014.9 |
| 20260507020612 | 26 | 81 | 3.2 | 8.0 | 0.00 | 0.00 | 0.00 | 81 | 1014.9 |
| 20260507020530 | 26 | 100 | 3.2 | 8.0 | 0.00 | 0.00 | 0.00 | 81 | 1014.9 |
| 20260507020410 | 26 | 31 | 3.2 | 8.0 | 0.00 | 0.00 | 0.00 | 81 | 1015.0 |
| 20260507020301 | 26 | 57 | 3.2 | 9.7 | 0.00 | 0.00 | 0.00 | 81 | 1014.9 |
| 20260507020251 | 26 | 58 | 3.2 | 9.7 | 0.00 | 0.00 | 0.00 | 81 | 1014.9 |
| 20260507020115 | 26 | 30 | 3.2 | 9.7 | 0.00 | 0.00 | 0.00 | 81 | 1015.0 |
| 20260507020033 | 26 | 69 | 1.6 | 9.7 | 0.00 | 0.00 | 0.00 | 81 | 1014.9 |
| 20260507015902 | 26 | 112 | 1.6 | 9.7 | 0.00 | 0.00 | 0.00 | 81 | 1015.0 |
| 20260507015812 | 26 | 75 | 1.6 | 9.7 | 0.00 | 0.00 | 0.00 | 80 | 1015.0 |
| 20260507015717 | 26 | 152 | 3.2 | 9.7 | 0.00 | 0.00 | 0.00 | 80 | 1014.9 |
| 20260507015610 | 26 | 122 | 3.2 | 9.7 | 0.00 | 0.00 | 0.00 | 81 | 1014.9 |
| 20260507015537 | 26 | 47 | 3.2 | 9.7 | 0.00 | 0.00 | 0.00 | 81 | 1014.9 |
| 20260507015401 | 26 | 66 | 3.2 | 9.7 | 0.00 | 0.00 | 0.00 | 81 | 1015.0 |
| 20260507015314 | 26 | 98 | 3.2 | 9.7 | 0.00 | 0.00 | 0.00 | 81 | 1015.0 |
| 20260507015226 | 26 | 125 | 3.2 | 9.7 | 0.00 | 0.00 | 0.00 | 81 | 1015.0 |
| 20260507015017 | 26 | 127 | 3.2 | 9.7 | 0.00 | 0.00 | 0.00 | 80 | 1015.0 |
| 20260507014927 | 26 | 77 | 4.8 | 8.0 | 0.00 | 0.00 | 0.00 | 81 | 1015.0 |
| 20260507014812 | 26 | 69 | 4.8 | 8.0 | 0.00 | 0.00 | 0.00 | 81 | 1015.0 |
| 20260507014708 | 26 | 18 | 4.8 | 8.0 | 0.00 | 0.00 | 0.00 | 81 | 1015.0 |
| 20260507014622 | 26 | 37 | 3.2 | 8.0 | 0.00 | 0.00 | 0.00 | 81 | 1015.0 |
| 20260507014521 | 26 | 343 | 3.2 | 8.0 | 0.00 | 0.00 | 0.00 | 80 | 1015.0 |
| 20260507014412 | 26 | 35 | 3.2 | 8.0 | 0.00 | 0.00 | 0.00 | 79 | 1015.0 |
| 20260507014309 | 26 | 56 | 4.8 | 8.0 | 0.00 | 0.00 | 0.00 | 78 | 1015.0 |
| 20260507014226 | 26 | 52 | 4.8 | 8.0 | 0.00 | 0.00 | 0.00 | 78 | 1015.0 |
| 20260507014134 | 26 | 47 | 4.8 | 9.7 | 0.00 | 0.00 | 0.00 | 80 | 1015.0 |
| 20260507014012 | 26 | 47 | 3.2 | 9.7 | 0.00 | 0.00 | 0.00 | 81 | 1014.9 |
| 20260507013901 | 26 | 74 | 4.8 | 9.7 | 0.00 | 0.00 | 0.00 | 80 | 1015.0 |
| 20260507013804 | 26 | 42 | 4.8 | 12.9 | 0.00 | 0.00 | 0.00 | 80 | 1015.0 |
| 20260507013711 | 26 | 18 | 4.8 | 12.9 | 0.00 | 0.00 | 0.00 | 80 | 1015.0 |
| 20260507013615 | 26 | 37 | 4.8 | 12.9 | 0.00 | 0.00 | 0.00 | 80 | 1015.0 |
| 20260507013505 | 26 | 156 | 3.2 | 12.9 | 0.00 | 0.00 | 0.00 | 80 | 1015.0 |
| 20260507013403 | 26 | 181 | 4.8 | 12.9 | 0.00 | 0.00 | 0.00 | 80 | 1015.0 |
| 20260507013310 | 26 | 98 | 4.8 | 12.9 | 0.00 | 0.00 | 0.00 | 80 | 1015.0 |
| 20260507013208 | 26 | 67 | 4.8 | 12.9 | 0.00 | 0.00 | 0.00 | 81 | 1014.9 |
| 20260507013033 | 26 | 106 | 3.2 | 12.9 | 0.00 | 0.00 | 0.00 | 81 | 1015.0 |
| 20260507012904 | 26 | 52 | 3.2 | 12.9 | 0.00 | 0.00 | 0.00 | 81 | 1015.0 |
| 20260507012806 | 26 | 95 | 3.2 | 12.9 | 0.00 | 0.00 | 0.00 | 81 | 1014.9 |
| 20260507012704 | 26 | 59 | 3.2 | 12.9 | 0.00 | 0.00 | 0.00 | 80 | 1014.9 |
| 20260507012511 | 26 | 108 | 4.8 | 12.9 | 0.00 | 0.00 | 0.00 | 79 | 1014.9 |
| 20260507012443 | 26 | 77 | 4.8 | 12.9 | 0.00 | 0.00 | 0.00 | 79 | 1014.9 |
| 20260507012329 | 26 | 20 | 4.8 | 12.9 | 0.00 | 0.00 | 0.00 | 79 | 1014.9 |
| 20260507012215 | 26 | 42 | 6.4 | 12.9 | 0.00 | 0.00 | 0.00 | 80 | 1014.9 |
| 20260507012101 | 26 | 31 | 4.8 | 12.9 | 0.00 | 0.00 | 0.00 | 80 | 1014.8 |
| 20260507011904 | 26 | 118 | 3.2 | 9.7 | 0.00 | 0.00 | 0.00 | 79 | 1014.9 |
| 20260507011801 | 26 | 27 | 3.2 | 9.7 | 0.00 | 0.00 | 0.00 | 79 | 1014.9 |
| 20260507011609 | 26 | 12 | 4.8 | 9.7 | 0.00 | 0.00 | 0.00 | 79 | 1014.9 |
| 20260507011506 | 26 | 34 | 4.8 | 9.7 | 0.00 | 0.00 | 0.00 | 80 | 1014.9 |
| 20260507011456 | 26 | 42 | 4.8 | 9.7 | 0.00 | 0.00 | 0.00 | 80 | 1014.9 |
| 20260507011301 | 26 | 97 | 3.2 | 8.0 | 0.00 | 0.00 | 0.00 | 82 | 1014.9 |
| 20260507011230 | 26 | 96 | 3.2 | 8.0 | 0.00 | 0.00 | 0.00 | 82 | 1014.9 |
| 20260507011114 | 26 | 115 | 3.2 | 9.7 | 0.00 | 0.00 | 0.00 | 81 | 1014.9 |
| 20260507011005 | 26 | 87 | 4.8 | 12.9 | 0.00 | 0.00 | 0.00 | 80 | 1014.9 |
| 20260507010912 | 26 | 71 | 4.8 | 12.9 | 0.00 | 0.00 | 0.00 | 80 | 1014.9 |
| 20260507010803 | 26 | 38 | 3.2 | 12.9 | 0.00 | 0.00 | 0.00 | 81 | 1014.9 |
| 20260507010704 | 26 | 112 | 1.6 | 12.9 | 0.00 | 0.00 | 0.00 | 80 | 1014.9 |
| 20260507010602 | 26 | 64 | 3.2 | 12.9 | 0.00 | 0.00 | 0.00 | 80 | 1014.9 |
| 20260507010518 | 26 | 87 | 3.2 | 12.9 | 0.00 | 0.00 | 0.00 | 80 | 1014.9 |
| 20260507010430 | 26 | 110 | 3.2 | 12.9 | 0.00 | 0.00 | 0.00 | 80 | 1014.9 |
| 20260507010306 | 26 | 14 | 6.4 | 12.9 | 0.00 | 0.00 | 0.00 | 79 | 1014.9 |
| 20260507010222 | 26 | 29 | 8.0 | 12.9 | 0.00 | 0.00 | 0.00 | 81 | 1014.9 |
| 20260507010109 | 27 | 31 | 6.4 | 12.9 | 0.00 | 0.00 | 0.00 | 81 | 1014.9 |
| 20260507010056 | 27 | 62 | 6.4 | 12.9 | 0.00 | 0.00 | 0.00 | 81 | 1014.9 |
| 20260507005918 | 27 | 52 | 3.2 | 8.0 | 0.00 | 0.00 | 0.00 | 81 | 1014.9 |
| 20260507005834 | 27 | 56 | 3.2 | 8.0 | 0.00 | 0.00 | 0.00 | 81 | 1014.9 |
| 20260507005709 | 26 | 63 | 3.2 | 8.0 | 0.00 | 0.00 | 0.00 | 80 | 1015.0 |
| 20260507005606 | 26 | 124 | 3.2 | 8.0 | 0.00 | 0.00 | 0.00 | 81 | 1014.9 |
| 20260507005512 | 26 | 37 | 3.2 | 8.0 | 0.00 | 0.00 | 0.00 | 81 | 1015.0 |
| 20260507005403 | 26 | 86 | 3.2 | 12.9 | 0.00 | 0.00 | 0.00 | 81 | 1014.9 |
| 20260507005204 | 26 | 2 | 1.6 | 12.9 | 0.00 | 0.00 | 0.00 | 83 | 1015.0 |
| 20260507005107 | 26 | 75 | 1.6 | 12.9 | 0.00 | 0.00 | 0.00 | 81 | 1014.9 |
| 20260507004911 | 26 | 18 | 4.8 | 14.5 | 0.00 | 0.00 | 0.00 | 81 | 1015.0 |
| 20260507004807 | 26 | 24 | 4.8 | 14.5 | 0.00 | 0.00 | 0.00 | 80 | 1015.0 |
| 20260507004707 | 26 | 353 | 6.4 | 14.5 | 0.00 | 0.00 | 0.00 | 80 | 1015.1 |
| 20260507004505 | 26 | 52 | 6.4 | 14.5 | 0.00 | 0.00 | 0.00 | 79 | 1015.0 |
| 20260507004404 | 26 | 61 | 4.8 | 14.5 | 0.00 | 0.00 | 0.00 | 80 | 1015.0 |
| 20260507004311 | 26 | 113 | 4.8 | 14.5 | 0.00 | 0.00 | 0.00 | 81 | 1015.1 |
| 20260507004201 | 26 | 6 | 4.8 | 12.9 | 0.00 | 0.00 | 0.00 | 81 | 1015.0 |
| 20260507004133 | 26 | 60 | 6.4 | 12.9 | 0.00 | 0.00 | 0.00 | 81 | 1015.0 |
| 20260507004039 | 26 | 9 | 6.4 | 12.9 | 0.00 | 0.00 | 0.00 | 81 | 1015.0 |
| 20260507003701 | 26 | 110 | 4.8 | 12.9 | 0.00 | 0.00 | 0.00 | 81 | 1015.0 |
| 20260507003627 | 26 | 52 | 4.8 | 12.9 | 0.00 | 0.00 | 0.00 | 80 | 1015.0 |
| 20260507003526 | 26 | 47 | 6.4 | 12.9 | 0.00 | 0.00 | 0.00 | 80 | 1015.0 |
| 20260507003416 | 26 | 52 | 6.4 | 11.3 | 0.00 | 0.00 | 0.00 | 81 | 1015.0 |
| 20260507003131 | 26 | 52 | 3.2 | 12.9 | 0.00 | 0.00 | 0.00 | 80 | 1015.0 |
| 20260507002930 | 26 | 68 | 3.2 | 12.9 | 0.00 | 0.00 | 0.00 | 80 | 1015.0 |
| 20260507002803 | 26 | 56 | 1.6 | 12.9 | 0.00 | 0.00 | 0.00 | 81 | 1015.2 |
| 20260507002713 | 26 | 135 | 1.6 | 12.9 | 0.00 | 0.00 | 0.00 | 81 | 1015.2 |
| 20260507002627 | 26 | 91 | 3.2 | 12.9 | 0.00 | 0.00 | 0.00 | 81 | 1015.1 |
| 20260507002527 | 26 | 108 | 4.8 | 12.9 | 0.00 | 0.00 | 0.00 | 82 | 1015.1 |
| 20260507002405 | 26 | 52 | 6.4 | 12.9 | 0.00 | 0.00 | 0.00 | 82 | 1015.2 |
| 20260507002315 | 26 | 42 | 4.8 | 11.3 | 0.00 | 0.00 | 0.00 | 82 | 1015.2 |
| 20260507002204 | 26 | 37 | 3.2 | 11.3 | 0.00 | 0.00 | 0.00 | 82 | 1015.2 |
| 20260507001917 | 26 | 129 | 4.8 | 9.7 | 0.00 | 0.00 | 0.00 | 81 | 1015.1 |
| 20260507001808 | 26 | 102 | 4.8 | 9.7 | 0.00 | 0.00 | 0.00 | 81 | 1015.1 |
| 20260507001704 | 26 | 126 | 4.8 | 9.7 | 0.00 | 0.00 | 0.00 | 81 | 1015.2 |
| 20260507001603 | 26 | 140 | 3.2 | 9.7 | 0.00 | 0.00 | 0.00 | 80 | 1015.1 |
| 20260507001402 | 26 | 35 | 4.8 | 9.7 | 0.00 | 0.00 | 0.00 | 80 | 1015.2 |
| 20260507001314 | 26 | 98 | 4.8 | 9.7 | 0.00 | 0.00 | 0.00 | 80 | 1015.2 |
| 20260507001216 | 26 | 42 | 4.8 | 9.7 | 0.00 | 0.00 | 0.00 | 81 | 1015.1 |
| 20260507001107 | 26 | 38 | 4.8 | 9.7 | 0.00 | 0.00 | 0.00 | 81 | 1015.2 |
| 20260507001008 | 26 | 52 | 3.2 | 9.7 | 0.00 | 0.00 | 0.00 | 80 | 1015.2 |
| 20260507000910 | 26 | 110 | 3.2 | 9.7 | 0.00 | 0.00 | 0.00 | 80 | 1015.2 |
| 20260507000820 | 26 | 113 | 4.8 | 9.7 | 0.00 | 0.00 | 0.00 | 80 | 1015.2 |
| 20260507000728 | 26 | 85 | 4.8 | 9.7 | 0.00 | 0.00 | 0.00 | 81 | 1015.3 |
| 20260507000611 | 26 | 65 | 4.8 | 12.9 | 0.00 | 0.00 | 0.00 | 81 | 1015.2 |
| 20260507000506 | 26 | 47 | 4.8 | 12.9 | 0.00 | 0.00 | 0.00 | 81 | 1015.2 |
| 20260507000406 | 26 | 42 | 4.8 | 12.9 | 0.00 | 0.00 | 0.00 | 81 | 1015.2 |
| 20260507000126 | 26 | 80 | 4.8 | 12.9 | 0.00 | 0.00 | 0.00 | 80 | 1015.3 |
| 20260507000009 | 26 | 15 | 4.8 | 12.9 | 0.00 | 0.00 | 0.00 | 80 | 1015.3 |
| 20260506235907 | 26 | 60 | 4.8 | 12.9 | 0.00 | 0.00 | 0.00 | 79 | 1015.2 |
| 20260506235806 | 26 | 58 | 4.8 | 12.9 | 0.00 | 0.00 | 0.00 | 80 | 1015.2 |
| 20260506235729 | 26 | 69 | 4.8 | 12.9 | 0.00 | 0.00 | 0.00 | 80 | 1015.3 |
| 20260506235622 | 26 | 82 | 4.8 | 12.9 | 0.00 | 0.00 | 0.00 | 80 | 1015.2 |
| 20260506235515 | 26 | 15 | 4.8 | 9.7 | 0.00 | 0.00 | 0.00 | 79 | 1015.3 |
| 20260506235105 | 26 | 13 | 3.2 | 9.7 | 0.00 | 0.00 | 0.00 | 79 | 1015.3 |
| 20260506235013 | 26 | 94 | 3.2 | 11.3 | 0.00 | 0.00 | 0.00 | 79 | 1015.3 |
| 20260506234911 | 26 | 108 | 4.8 | 11.3 | 0.00 | 0.00 | 0.00 | 79 | 1015.4 |
| 20260506234817 | 26 | 47 | 4.8 | 11.3 | 0.00 | 0.00 | 0.00 | 79 | 1015.3 |
| 20260506234706 | 27 | 110 | 4.8 | 11.3 | 0.00 | 0.00 | 0.00 | 79 | 1015.4 |
| 20260506234606 | 27 | 117 | 4.8 | 11.3 | 0.00 | 0.00 | 0.00 | 79 | 1015.3 |
| 20260506234508 | 27 | 88 | 4.8 | 11.3 | 0.00 | 0.00 | 0.00 | 80 | 1015.3 |
| 20260506234408 | 27 | 98 | 3.2 | 11.3 | 0.00 | 0.00 | 0.00 | 80 | 1015.3 |
| 20260506234311 | 27 | 98 | 3.2 | 11.3 | 0.00 | 0.00 | 0.00 | 80 | 1015.4 |
| 20260506234212 | 27 | 47 | 4.8 | 11.3 | 0.00 | 0.00 | 0.00 | 80 | 1015.4 |
| 20260506234105 | 27 | 6 | 4.8 | 11.3 | 0.00 | 0.00 | 0.00 | 79 | 1015.4 |
| 20260506233913 | 27 | 158 | 4.8 | 9.7 | 0.00 | 0.00 | 0.00 | 80 | 1015.4 |
| 20260506233706 | 27 | 60 | 3.2 | 11.3 | 0.00 | 0.00 | 0.00 | 79 | 1015.4 |
| 20260506233524 | 27 | 20 | 3.2 | 11.3 | 0.00 | 0.00 | 0.00 | 80 | 1015.5 |
| 20260506233409 | 27 | 28 | 3.2 | 11.3 | 0.00 | 0.00 | 0.00 | 80 | 1015.6 |
| 20260506233203 | 26 | 108 | 3.2 | 11.3 | 0.00 | 0.00 | 0.00 | 80 | 1015.7 |
| 20260506233020 | 26 | 139 | 6.4 | 11.3 | 0.00 | 0.00 | 0.00 | 79 | 1015.7 |
| 20260506232921 | 26 | 106 | 6.4 | 11.3 | 0.00 | 0.00 | 0.00 | 79 | 1015.7 |
| 20260506232815 | 26 | 35 | 4.8 | 9.7 | 0.00 | 0.00 | 0.00 | 80 | 1015.7 |
| 20260506232710 | 26 | 17 | 4.8 | 11.3 | 0.00 | 0.00 | 0.00 | 80 | 1015.7 |
| 20260506232520 | 26 | 67 | 4.8 | 11.3 | 0.00 | 0.00 | 0.00 | 80 | 1015.8 |
| 20260506232405 | 26 | 355 | 3.2 | 11.3 | 0.00 | 0.00 | 0.00 | 80 | 1015.8 |
| 20260506232314 | 26 | 154 | 4.8 | 11.3 | 0.00 | 0.00 | 0.00 | 78 | 1015.7 |
| 20260506232205 | 26 | 24 | 6.4 | 11.3 | 0.00 | 0.00 | 0.00 | 78 | 1015.8 |
| 20260506232108 | 26 | 52 | 4.8 | 12.9 | 0.00 | 0.00 | 0.00 | 78 | 1015.7 |
| 20260506232010 | 27 | 56 | 6.4 | 12.9 | 0.00 | 0.00 | 0.00 | 78 | 1015.7 |
| 20260506231803 | 27 | 118 | 6.4 | 12.9 | 0.00 | 0.00 | 0.00 | 78 | 1015.7 |
| 20260506231707 | 27 | 42 | 4.8 | 12.9 | 0.00 | 0.00 | 0.00 | 79 | 1015.7 |
| 20260506231614 | 27 | 85 | 4.8 | 12.9 | 0.00 | 0.00 | 0.00 | 79 | 1015.7 |
| 20260506231514 | 27 | 36 | 3.2 | 12.9 | 0.00 | 0.00 | 0.00 | 79 | 1015.7 |
| 20260506231409 | 27 | 83 | 3.2 | 12.9 | 0.00 | 0.00 | 0.00 | 79 | 1015.8 |
| 20260506231309 | 27 | 20 | 3.2 | 12.9 | 0.00 | 0.00 | 0.00 | 79 | 1015.7 |
| 20260506231109 | 27 | 60 | 6.4 | 12.9 | 0.00 | 0.00 | 0.00 | 78 | 1015.8 |
| 20260506231005 | 27 | 56 | 6.4 | 12.9 | 0.00 | 0.00 | 0.00 | 78 | 1015.9 |
| 20260506230937 | 27 | 68 | 6.4 | 12.9 | 0.00 | 0.00 | 0.00 | 78 | 1015.9 |
| 20260506230715 | 27 | 63 | 3.2 | 12.9 | 0.00 | 0.00 | 0.00 | 79 | 1015.9 |
| 20260506230512 | 27 | 64 | 6.4 | 12.9 | 0.00 | 0.00 | 0.00 | 78 | 1015.9 |
| 20260506230404 | 27 | 75 | 4.8 | 12.9 | 0.00 | 0.00 | 0.00 | 78 | 1016.0 |
| 20260506230312 | 27 | 77 | 4.8 | 12.9 | 0.00 | 0.00 | 0.00 | 79 | 1016.0 |
| 20260506230221 | 27 | 99 | 3.2 | 12.9 | 0.00 | 0.00 | 0.00 | 79 | 1016.0 |
| 20260506230110 | 27 | 148 | 4.8 | 14.5 | 0.00 | 0.00 | 0.00 | 80 | 1016.0 |
| 20260506225903 | 27 | 137 | 4.8 | 16.1 | 0.00 | 0.00 | 0.00 | 80 | 1016.0 |
| 20260506225702 | 27 | 189 | 3.2 | 16.1 | 0.00 | 0.00 | 0.00 | 81 | 1016.0 |
| 20260506225609 | 27 | 96 | 3.2 | 16.1 | 0.00 | 0.00 | 0.00 | 81 | 1016.0 |
| 20260506225532 | 27 | 62 | 3.2 | 16.1 | 0.00 | 0.00 | 0.00 | 81 | 1016.0 |
| 20260506225402 | 26 | 159 | 6.4 | 16.1 | 0.00 | 0.00 | 0.00 | 80 | 1016.0 |
| 20260506225311 | 26 | 52 | 8.0 | 16.1 | 0.00 | 0.00 | 0.00 | 80 | 1016.0 |
| 20260506225208 | 26 | 42 | 8.0 | 16.1 | 0.00 | 0.00 | 0.00 | 80 | 1016.0 |
| 20260506225105 | 26 | 33 | 8.0 | 16.1 | 0.00 | 0.00 | 0.00 | 80 | 1015.9 |
| 20260506225017 | 27 | 59 | 8.0 | 16.1 | 0.00 | 0.00 | 0.00 | 79 | 1015.9 |
| 20260506224903 | 27 | 35 | 4.8 | 16.1 | 0.00 | 0.00 | 0.00 | 80 | 1016.0 |
| 20260506224819 | 27 | 24 | 3.2 | 14.5 | 0.00 | 0.00 | 0.00 | 79 | 1016.0 |
| 20260506224708 | 27 | 66 | 6.4 | 14.5 | 0.00 | 0.00 | 0.00 | 79 | 1016.0 |
| 20260506224603 | 27 | 42 | 8.0 | 14.5 | 0.00 | 0.00 | 0.00 | 79 | 1016.1 |
| 20260506224505 | 27 | 47 | 6.4 | 14.5 | 0.00 | 0.00 | 0.00 | 79 | 1016.1 |
| 20260506224410 | 27 | 66 | 4.8 | 14.5 | 0.00 | 0.00 | 0.00 | 78 | 1016.1 |
| 20260506224300 | 27 | 131 | 3.2 | 14.5 | 0.00 | 0.00 | 0.00 | 79 | 1015.9 |
| 20260506224203 | 27 | 359 | 3.2 | 14.5 | 0.00 | 0.00 | 0.00 | 80 | 1015.9 |
| 20260506224101 | 27 | 117 | 3.2 | 14.5 | 0.00 | 0.00 | 0.00 | 80 | 1016.0 |
| 20260506224019 | 27 | 34 | 3.2 | 14.5 | 0.00 | 0.00 | 0.00 | 80 | 1016.0 |
| 20260506223914 | 27 | 101 | 3.2 | 14.5 | 0.00 | 0.00 | 0.00 | 79 | 1015.9 |
| 20260506223806 | 27 | 7 | 4.8 | 14.5 | 0.00 | 0.00 | 0.00 | 79 | 1015.9 |
| 20260506223715 | 27 | 91 | 4.8 | 14.5 | 0.00 | 0.00 | 0.00 | 80 | 1016.0 |
| 20260506223511 | 27 | 133 | 3.2 | 9.7 | 0.00 | 0.00 | 0.00 | 80 | 1016.0 |
| 20260506223412 | 27 | 137 | 4.8 | 9.7 | 0.00 | 0.00 | 0.00 | 80 | 1016.1 |
| 20260506223209 | 27 | 42 | 3.2 | 9.7 | 0.00 | 0.00 | 0.00 | 81 | 1016.1 |
| 20260506223120 | 27 | 42 | 3.2 | 14.5 | 0.00 | 0.00 | 0.00 | 80 | 1016.2 |
| 20260506223005 | 26 | 96 | 3.2 | 16.1 | 0.00 | 0.00 | 0.00 | 80 | 1016.1 |
| 20260506222902 | 26 | 61 | 4.8 | 16.1 | 0.00 | 0.00 | 0.00 | 81 | 1016.2 |
| 20260506222803 | 26 | 14 | 3.2 | 16.1 | 0.00 | 0.00 | 0.00 | 81 | 1016.2 |
| 20260506222716 | 26 | 111 | 3.2 | 16.1 | 0.00 | 0.00 | 0.00 | 81 | 1016.2 |
| 20260506222603 | 26 | 126 | 4.8 | 16.1 | 0.00 | 0.00 | 0.00 | 82 | 1016.3 |
| 20260506222506 | 26 | 119 | 4.8 | 16.1 | 0.00 | 0.00 | 0.00 | 83 | 1016.3 |
| 20260506222402 | 26 | 38 | 6.4 | 16.1 | 0.00 | 0.00 | 0.00 | 82 | 1016.2 |
| 20260506222210 | 26 | 28 | 8.0 | 16.1 | 0.00 | 0.00 | 0.00 | 82 | 1016.3 |
| 20260506222109 | 26 | 26 | 8.0 | 16.1 | 0.00 | 0.00 | 0.00 | 82 | 1016.3 |
| 20260506222008 | 26 | 4 | 8.0 | 16.1 | 0.00 | 0.00 | 0.00 | 82 | 1016.2 |
| 20260506221918 | 26 | 27 | 6.4 | 16.1 | 0.00 | 0.00 | 0.00 | 82 | 1016.2 |
| 20260506221803 | 26 | 42 | 6.4 | 16.1 | 0.00 | 0.00 | 0.00 | 83 | 1016.2 |
| 20260506221715 | 26 | 89 | 6.4 | 16.1 | 0.00 | 0.00 | 0.00 | 83 | 1016.2 |
| 20260506221610 | 26 | 353 | 6.4 | 12.9 | 0.00 | 0.00 | 0.00 | 82 | 1016.2 |
| 20260506221404 | 26 | 75 | 8.0 | 12.9 | 0.00 | 0.00 | 0.00 | 83 | 1016.2 |
| 20260506221309 | 26 | 98 | 6.4 | 12.9 | 0.00 | 0.00 | 0.00 | 82 | 1016.1 |
| 20260506221229 | 26 | 52 | 4.8 | 12.9 | 0.00 | 0.00 | 0.00 | 82 | 1016.1 |
| 20260506221118 | 26 | 93 | 1.6 | 12.9 | 0.00 | 0.00 | 0.00 | 83 | 1016.1 |
| 20260506221026 | 26 | 80 | 3.2 | 14.5 | 0.00 | 0.00 | 0.00 | 83 | 1016.2 |
| 20260506220906 | 26 | 118 | 4.8 | 14.5 | 0.00 | 0.00 | 0.00 | 82 | 1016.2 |
| 20260506220807 | 26 | 143 | 6.4 | 14.5 | 0.00 | 0.00 | 0.00 | 83 | 1016.2 |
| 20260506220710 | 26 | 42 | 4.8 | 14.5 | 0.00 | 0.00 | 0.00 | 82 | 1016.2 |
| 20260506220604 | 26 | 56 | 4.8 | 14.5 | 0.00 | 0.00 | 0.00 | 82 | 1016.3 |
| 20260506220512 | 26 | 118 | 4.8 | 14.5 | 0.00 | 0.00 | 0.00 | 82 | 1016.3 |
| 20260506220406 | 26 | 20 | 6.4 | 14.5 | 0.00 | 0.00 | 0.00 | 82 | 1016.3 |
| 20260506220306 | 26 | 342 | 8.0 | 14.5 | 0.00 | 0.00 | 0.00 | 81 | 1016.4 |
| 20260506220207 | 26 | 37 | 6.4 | 14.5 | 0.00 | 0.00 | 0.00 | 82 | 1016.4 |
| 20260506220114 | 26 | 76 | 6.4 | 14.5 | 0.00 | 0.00 | 0.00 | 80 | 1016.3 |
| 20260506220019 | 26 | 111 | 8.0 | 14.5 | 0.00 | 0.00 | 0.00 | 80 | 1016.3 |
| 20260506215733 | 27 | 95 | 6.4 | 14.5 | 0.00 | 0.00 | 0.00 | 79 | 1016.4 |
| 20260506215604 | 27 | 108 | 4.8 | 12.9 | 0.00 | 0.00 | 0.00 | 80 | 1016.3 |
| 20260506215425 | 27 | 29 | 6.4 | 16.1 | 0.00 | 0.00 | 0.00 | 80 | 1016.4 |
| 20260506215306 | 27 | 36 | 4.8 | 16.1 | 0.00 | 0.00 | 0.00 | 80 | 1016.5 |
| 20260506215225 | 27 | 154 | 4.8 | 16.1 | 0.00 | 0.00 | 0.00 | 81 | 1016.5 |
| 20260506215102 | 27 | 56 | 4.8 | 16.1 | 0.00 | 0.00 | 0.00 | 81 | 1016.4 |
| 20260506215008 | 27 | 96 | 6.4 | 16.1 | 0.00 | 0.00 | 0.00 | 80 | 1016.4 |
| 20260506214917 | 27 | 81 | 6.4 | 16.1 | 0.00 | 0.00 | 0.00 | 80 | 1016.5 |
| 20260506214829 | 27 | 10 | 8.0 | 16.1 | 0.00 | 0.00 | 0.00 | 80 | 1016.5 |
| 20260506214709 | 27 | 71 | 8.0 | 16.1 | 0.00 | 0.00 | 0.00 | 80 | 1016.5 |
| 20260506214608 | 27 | 66 | 6.4 | 16.1 | 0.00 | 0.00 | 0.00 | 80 | 1016.5 |
| 20260506214403 | 27 | 98 | 4.8 | 16.1 | 0.00 | 0.00 | 0.00 | 80 | 1016.6 |
| 20260506214207 | 27 | 74 | 4.8 | 14.5 | 0.00 | 0.00 | 0.00 | 81 | 1016.7 |
| 20260506214110 | 27 | 153 | 4.8 | 14.5 | 0.00 | 0.00 | 0.00 | 82 | 1016.7 |
| 20260506214024 | 27 | 346 | 4.8 | 14.5 | 0.00 | 0.00 | 0.00 | 82 | 1016.7 |
| 20260506213802 | 27 | 105 | 8.0 | 14.5 | 0.00 | 0.00 | 0.00 | 80 | 1016.7 |
| 20260506213704 | 27 | 20 | 6.4 | 14.5 | 0.00 | 0.00 | 0.00 | 79 | 1016.7 |
| 20260506213609 | 27 | 87 | 4.8 | 14.5 | 0.00 | 0.00 | 0.00 | 80 | 1016.7 |
| 20260506213401 | 27 | 97 | 3.2 | 12.9 | 0.00 | 0.00 | 0.00 | 80 | 1016.6 |
| 20260506213306 | 27 | 42 | 4.8 | 12.9 | 0.00 | 0.00 | 0.00 | 79 | 1016.6 |
| 20260506213211 | 27 | 160 | 3.2 | 12.9 | 0.00 | 0.00 | 0.00 | 79 | 1016.6 |
| 20260506213112 | 27 | 87 | 4.8 | 14.5 | 0.00 | 0.00 | 0.00 | 79 | 1016.7 |
| 20260506213010 | 27 | 21 | 6.4 | 14.5 | 0.00 | 0.00 | 0.00 | 79 | 1016.6 |
| 20260506212911 | 27 | 69 | 4.8 | 14.5 | 0.00 | 0.00 | 0.00 | 79 | 1016.6 |
| 20260506212805 | 27 | 47 | 4.8 | 14.5 | 0.00 | 0.00 | 0.00 | 80 | 1016.6 |
| 20260506212713 | 27 | 146 | 3.2 | 14.5 | 0.00 | 0.00 | 0.00 | 79 | 1016.7 |
| 20260506212613 | 27 | 135 | 3.2 | 14.5 | 0.00 | 0.00 | 0.00 | 79 | 1016.7 |
| 20260506212506 | 27 | 52 | 3.2 | 14.5 | 0.00 | 0.00 | 0.00 | 79 | 1016.7 |
| 20260506212415 | 27 | 87 | 4.8 | 14.5 | 0.00 | 0.00 | 0.00 | 79 | 1016.7 |
| 20260506212321 | 27 | 125 | 4.8 | 14.5 | 0.00 | 0.00 | 0.00 | 79 | 1016.7 |
| 20260506212208 | 27 | 15 | 3.2 | 14.5 | 0.00 | 0.00 | 0.00 | 80 | 1016.7 |
| 20260506212112 | 27 | 74 | 1.6 | 12.9 | 0.00 | 0.00 | 0.00 | 79 | 1016.7 |
| 20260506212005 | 27 | 130 | 3.2 | 12.9 | 0.00 | 0.00 | 0.00 | 78 | 1016.7 |
| 20260506211906 | 27 | 63 | 3.2 | 12.9 | 0.00 | 0.00 | 0.00 | 77 | 1016.7 |
| 20260506211816 | 27 | 196 | 4.8 | 12.9 | 0.00 | 0.00 | 0.00 | 78 | 1016.7 |
| 20260506211721 | 27 | 204 | 4.8 | 11.3 | 0.00 | 0.00 | 0.00 | 78 | 1016.7 |
| 20260506211618 | 27 | 110 | 4.8 | 11.3 | 0.00 | 0.00 | 0.00 | 78 | 1016.7 |
| 20260506211519 | 27 | 109 | 3.2 | 11.3 | 0.00 | 0.00 | 0.00 | 78 | 1016.6 |
| 20260506211421 | 27 | 103 | 3.2 | 11.3 | 0.00 | 0.00 | 0.00 | 80 | 1016.7 |
| 20260506211305 | 27 | 143 | 3.2 | 9.7 | 0.00 | 0.00 | 0.00 | 78 | 1016.7 |
| 20260506211212 | 27 | 123 | 3.2 | 16.1 | 0.00 | 0.00 | 0.00 | 78 | 1016.7 |
| 20260506211125 | 27 | 174 | 3.2 | 16.1 | 0.00 | 0.00 | 0.00 | 78 | 1016.7 |
| 20260506211018 | 27 | 22 | 3.2 | 16.1 | 0.00 | 0.00 | 0.00 | 79 | 1016.6 |
| 20260506210803 | 27 | 174 | 4.8 | 16.1 | 0.00 | 0.00 | 0.00 | 79 | 1016.6 |
| 20260506210711 | 27 | 105 | 4.8 | 16.1 | 0.00 | 0.00 | 0.00 | 79 | 1016.6 |
| 20260506210612 | 27 | 137 | 4.8 | 16.1 | 0.00 | 0.00 | 0.00 | 78 | 1016.6 |
| 20260506210403 | 27 | 47 | 6.4 | 16.1 | 0.00 | 0.00 | 0.00 | 80 | 1016.8 |
| 20260506210337 | 27 | 75 | 8.0 | 16.1 | 0.00 | 0.00 | 0.00 | 80 | 1016.8 |
| 20260506210207 | 27 | 42 | 4.8 | 16.1 | 0.00 | 0.00 | 0.00 | 80 | 1016.7 |
| 20260506210108 | 27 | 56 | 3.2 | 9.7 | 0.00 | 0.00 | 0.00 | 80 | 1016.7 |
| 20260506210009 | 27 | 52 | 4.8 | 9.7 | 0.00 | 0.00 | 0.00 | 79 | 1016.8 |
| 20260506205906 | 27 | 140 | 3.2 | 12.9 | 0.00 | 0.00 | 0.00 | 79 | 1016.8 |
| 20260506205806 | 27 | 152 | 1.6 | 12.9 | 0.00 | 0.00 | 0.00 | 79 | 1016.8 |
| 20260506205616 | 27 | 121 | 3.2 | 12.9 | 0.00 | 0.00 | 0.00 | 80 | 1016.8 |
| 20260506205509 | 26 | 117 | 4.8 | 12.9 | 0.00 | 0.00 | 0.00 | 79 | 1016.8 |
| 20260506205407 | 26 | 150 | 4.8 | 12.9 | 0.00 | 0.00 | 0.00 | 79 | 1016.9 |
| 20260506205313 | 26 | 125 | 3.2 | 12.9 | 0.00 | 0.00 | 0.00 | 79 | 1016.8 |
| 20260506205100 | 26 | 56 | 4.8 | 12.9 | 0.00 | 0.00 | 0.00 | 79 | 1016.8 |
| 20260506205007 | 26 | 47 | 6.4 | 12.9 | 0.00 | 0.00 | 0.00 | 77 | 1016.8 |
| 20260506204916 | 26 | 66 | 4.8 | 12.9 | 0.00 | 0.00 | 0.00 | 77 | 1016.8 |
| 20260506204814 | 26 | 77 | 4.8 | 12.9 | 0.00 | 0.00 | 0.00 | 77 | 1016.7 |
| 20260506204512 | 27 | 42 | 8.0 | 12.9 | 0.00 | 0.00 | 0.00 | 76 | 1016.7 |
| 20260506204400 | 27 | 52 | 6.4 | 12.9 | 0.00 | 0.00 | 0.00 | 77 | 1016.7 |
| 20260506204307 | 27 | 36 | 6.4 | 12.9 | 0.00 | 0.00 | 0.00 | 77 | 1016.7 |
| 20260506204215 | 27 | 42 | 4.8 | 12.9 | 0.00 | 0.00 | 0.00 | 77 | 1016.8 |
| 20260506204107 | 27 | 76 | 4.8 | 12.9 | 0.00 | 0.00 | 0.00 | 76 | 1016.8 |
| 20260506204005 | 27 | 185 | 4.8 | 12.9 | 0.00 | 0.00 | 0.00 | 76 | 1016.9 |
| 20260506203902 | 27 | 170 | 4.8 | 12.9 | 0.00 | 0.00 | 0.00 | 76 | 1016.9 |
| 20260506203818 | 27 | 85 | 6.4 | 12.9 | 0.00 | 0.00 | 0.00 | 75 | 1016.9 |
| 20260506203709 | 27 | 59 | 3.2 | 12.9 | 0.00 | 0.00 | 0.00 | 77 | 1016.9 |
| 20260506203606 | 27 | 152 | 1.6 | 8.0 | 0.00 | 0.00 | 0.00 | 77 | 1016.9 |
| 20260506203507 | 27 | 18 | 1.6 | 8.0 | 0.00 | 0.00 | 0.00 | 77 | 1016.9 |
| 20260506203403 | 27 | 42 | 3.2 | 8.0 | 0.00 | 0.00 | 0.00 | 78 | 1016.8 |
| 20260506203336 | 27 | 158 | 4.8 | 8.0 | 0.00 | 0.00 | 0.00 | 77 | 1016.8 |
| 20260506203105 | 27 | 2 | 3.2 | 8.0 | 0.00 | 0.00 | 0.00 | 80 | 1016.8 |
| 20260506203006 | 27 | 61 | 3.2 | 8.0 | 0.00 | 0.00 | 0.00 | 80 | 1016.8 |
| 20260506202903 | 26 | 52 | 3.2 | 8.0 | 0.00 | 0.00 | 0.00 | 79 | 1016.9 |
| 20260506202808 | 26 | 21 | 3.2 | 8.0 | 0.00 | 0.00 | 0.00 | 79 | 1016.9 |
| 20260506202706 | 26 | 107 | 4.8 | 8.0 | 0.00 | 0.00 | 0.00 | 78 | 1016.8 |
| 20260506202608 | 26 | 112 | 4.8 | 8.0 | 0.00 | 0.00 | 0.00 | 78 | 1016.8 |
| 20260506202530 | 26 | 92 | 3.2 | 8.0 | 0.00 | 0.00 | 0.00 | 78 | 1016.9 |
| 20260506202417 | 26 | 86 | 3.2 | 8.0 | 0.00 | 0.00 | 0.00 | 79 | 1016.9 |
| 20260506202310 | 26 | 112 | 3.2 | 8.0 | 0.00 | 0.00 | 0.00 | 78 | 1016.9 |
| 20260506202200 | 26 | 164 | 3.2 | 8.0 | 0.00 | 0.00 | 0.00 | 80 | 1016.9 |
| 20260506202110 | 26 | 178 | 3.2 | 9.7 | 0.00 | 0.00 | 0.00 | 80 | 1016.9 |
| 20260506202012 | 26 | 117 | 3.2 | 9.7 | 0.00 | 0.00 | 0.00 | 80 | 1016.9 |
| 20260506201906 | 26 | 129 | 3.2 | 9.7 | 0.00 | 0.00 | 0.00 | 80 | 1016.9 |
| 20260506201807 | 26 | 116 | 3.2 | 9.7 | 0.00 | 0.00 | 0.00 | 81 | 1016.9 |
| 20260506201718 | 26 | 84 | 3.2 | 9.7 | 0.00 | 0.00 | 0.00 | 81 | 1016.9 |
| 20260506201611 | 26 | 85 | 4.8 | 9.7 | 0.00 | 0.00 | 0.00 | 80 | 1016.8 |
| 20260506201402 | 26 | 141 | 1.6 | 9.7 | 0.00 | 0.00 | 0.00 | 81 | 1016.8 |
| 20260506201304 | 26 | 69 | 3.2 | 9.7 | 0.00 | 0.00 | 0.00 | 80 | 1016.7 |
| 20260506201205 | 26 | 100 | 4.8 | 9.7 | 0.00 | 0.00 | 0.00 | 80 | 1016.7 |
| 20260506201107 | 26 | 103 | 4.8 | 9.7 | 0.00 | 0.00 | 0.00 | 80 | 1016.8 |
| 20260506201007 | 26 | 345 | 3.2 | 9.7 | 0.00 | 0.00 | 0.00 | 81 | 1016.8 |
| 20260506200904 | 26 | 58 | 3.2 | 9.7 | 0.00 | 0.00 | 0.00 | 81 | 1016.8 |
| 20260506200808 | 26 | 83 | 3.2 | 9.7 | 0.00 | 0.00 | 0.00 | 81 | 1016.8 |
| 20260506200715 | 26 | 164 | 3.2 | 9.7 | 0.00 | 0.00 | 0.00 | 81 | 1016.7 |
| 20260506200608 | 26 | 47 | 3.2 | 9.7 | 0.00 | 0.00 | 0.00 | 81 | 1016.6 |
| 20260506200514 | 26 | 125 | 4.8 | 9.7 | 0.00 | 0.00 | 0.00 | 81 | 1016.7 |
| 20260506200415 | 26 | 66 | 4.8 | 9.7 | 0.00 | 0.00 | 0.00 | 81 | 1016.7 |
| 20260506200218 | 26 | 52 | 1.6 | 9.7 | 0.00 | 0.00 | 0.00 | 81 | 1016.6 |
| 20260506200112 | 26 | 23 | 3.2 | 9.7 | 0.00 | 0.00 | 0.00 | 80 | 1016.6 |
| 20260506200005 | 26 | 91 | 4.8 | 9.7 | 0.00 | 0.05 | 0.00 | 81 | 1016.7 |
| 20260506195939 | 26 | 68 | 4.8 | 9.7 | 0.00 | 0.05 | 0.00 | 81 | 1016.7 |
| 20260506195821 | 26 | 52 | 6.4 | 9.7 | 0.00 | 0.05 | 0.00 | 80 | 1016.6 |
| 20260506195605 | 26 | 47 | 3.2 | 9.7 | 0.00 | 0.05 | 0.00 | 80 | 1016.6 |
| 20260506195511 | 26 | 93 | 1.6 | 9.7 | 0.00 | 0.05 | 0.00 | 80 | 1016.6 |
| 20260506195405 | 26 | 102 | 1.6 | 9.7 | 0.00 | 0.05 | 0.00 | 80 | 1016.6 |
| 20260506195203 | 26 | 107 | 3.2 | 9.7 | 0.00 | 0.05 | 0.00 | 80 | 1016.7 |
| 20260506195107 | 26 | 47 | 3.2 | 9.7 | 0.00 | 0.05 | 0.00 | 80 | 1016.7 |
| 20260506195005 | 26 | 42 | 4.8 | 9.7 | 0.00 | 0.05 | 0.00 | 80 | 1016.7 |
| 20260506194905 | 26 | 131 | 3.2 | 9.7 | 0.00 | 0.05 | 0.00 | 79 | 1016.7 |
| 20260506194803 | 26 | 104 | 1.6 | 6.4 | 0.00 | 0.05 | 0.00 | 81 | 1016.7 |
| 20260506194705 | 26 | 29 | 1.6 | 6.4 | 0.00 | 0.05 | 0.00 | 81 | 1016.7 |
| 20260506194605 | 26 | 27 | 1.6 | 8.0 | 0.00 | 0.05 | 0.00 | 81 | 1016.7 |
| 20260506194515 | 26 | 148 | 1.6 | 12.9 | 0.00 | 0.05 | 0.00 | 80 | 1016.7 |
| 20260506194408 | 26 | 352 | 1.6 | 12.9 | 0.00 | 0.05 | 0.00 | 80 | 1016.8 |
| 20260506194213 | 26 | 125 | 1.6 | 12.9 | 0.00 | 0.05 | 0.00 | 80 | 1016.7 |
| 20260506194108 | 26 | 85 | 3.2 | 12.9 | 0.00 | 0.05 | 0.00 | 81 | 1016.6 |
| 20260506194008 | 26 | 14 | 3.2 | 12.9 | 0.00 | 0.05 | 0.00 | 80 | 1016.6 |
| 20260506193917 | 26 | 28 | 4.8 | 12.9 | 0.00 | 0.05 | 0.00 | 80 | 1016.6 |
| 20260506193801 | 26 | 72 | 4.8 | 12.9 | 0.00 | 0.05 | 0.00 | 80 | 1016.5 |
| 20260506193700 | 26 | 85 | 6.4 | 12.9 | 0.00 | 0.05 | 0.00 | 80 | 1016.5 |
| 20260506193607 | 26 | 60 | 6.4 | 12.9 | 0.00 | 0.05 | 0.00 | 80 | 1016.5 |
| 20260506193513 | 26 | 17 | 4.8 | 12.9 | 0.00 | 0.05 | 0.00 | 80 | 1016.5 |
| 20260506193429 | 26 | 42 | 3.2 | 8.0 | 0.00 | 0.05 | 0.00 | 80 | 1016.5 |
| 20260506193304 | 26 | 42 | 4.8 | 6.4 | 0.00 | 0.05 | 0.00 | 79 | 1016.5 |
| 20260506193231 | 26 | 68 | 4.8 | 6.4 | 0.00 | 0.05 | 0.00 | 79 | 1016.6 |
| 20260506193104 | 26 | 47 | 4.8 | 6.4 | 0.00 | 0.05 | 0.00 | 79 | 1016.6 |
| 20260506192908 | 26 | 31 | 3.2 | 6.4 | 0.00 | 0.05 | 0.00 | 80 | 1016.6 |
| 20260506192803 | 26 | 98 | 3.2 | 6.4 | 0.00 | 0.05 | 0.00 | 79 | 1016.8 |
| 20260506192721 | 26 | 121 | 1.6 | 6.4 | 0.00 | 0.05 | 0.00 | 79 | 1016.8 |
| 20260506192504 | 26 | 153 | 1.6 | 6.4 | 0.00 | 0.05 | 0.00 | 78 | 1016.8 |
| 20260506192406 | 26 | 121 | 3.2 | 6.4 | 0.00 | 0.05 | 0.00 | 78 | 1016.8 |
| 20260506192305 | 26 | 89 | 3.2 | 6.4 | 0.00 | 0.05 | 0.00 | 78 | 1016.8 |
| 20260506192211 | 27 | 126 | 3.2 | 4.8 | 0.00 | 0.05 | 0.00 | 78 | 1016.8 |
| 20260506192101 | 27 | 42 | 1.6 | 4.8 | 0.00 | 0.05 | 0.00 | 79 | 1016.7 |
| 20260506191936 | 27 | 57 | 1.6 | 4.8 | 0.00 | 0.05 | 0.00 | 78 | 1016.7 |
| 20260506191706 | 27 | 104 | 1.6 | 4.8 | 0.00 | 0.05 | 0.00 | 80 | 1016.7 |
| 20260506191604 | 26 | 74 | 1.6 | 4.8 | 0.00 | 0.05 | 0.00 | 79 | 1016.6 |
| 20260506191505 | 26 | 52 | 1.6 | 4.8 | 0.00 | 0.05 | 0.00 | 79 | 1016.6 |
| 20260506191409 | 26 | 33 | 0.0 | 3.2 | 0.00 | 0.05 | 0.00 | 79 | 1016.6 |
| 20260506191306 | 26 | 33 | 0.0 | 3.2 | 0.00 | 0.05 | 0.00 | 77 | 1016.6 |
| 20260506191208 | 26 | 66 | 0.0 | 3.2 | 0.00 | 0.05 | 0.00 | 76 | 1016.6 |
| 20260506191011 | 26 | 139 | 0.0 | 3.2 | 0.00 | 0.05 | 0.00 | 76 | 1016.6 |
| 20260506190907 | 26 | 139 | 1.6 | 3.2 | 0.00 | 0.05 | 0.00 | 77 | 1016.6 |
| 20260506190809 | 26 | 139 | 1.6 | 3.2 | 0.00 | 0.05 | 0.00 | 76 | 1016.7 |
| 20260506190701 | 26 | 113 | 1.6 | 3.2 | 0.00 | 0.05 | 0.00 | 77 | 1016.7 |
| 20260506190621 | 26 | 93 | 1.6 | 3.2 | 0.00 | 0.05 | 0.00 | 78 | 1016.7 |
| 20260506190203 | 26 | 225 | 1.6 | 3.2 | 0.00 | 0.05 | 0.00 | 78 | 1016.8 |
| 20260506190104 | 25 | 168 | 1.6 | 3.2 | 0.00 | 0.05 | 0.00 | 78 | 1016.8 |
| 20260506190023 | 25 | 172 | 1.6 | 4.8 | 0.00 | 0.05 | 0.00 | 78 | 1016.8 |
| 20260506185917 | 25 | 194 | 1.6 | 4.8 | 0.00 | 0.08 | 0.00 | 79 | 1016.8 |
| 20260506185816 | 25 | 96 | 1.6 | 4.8 | 0.00 | 0.08 | 0.00 | 80 | 1016.7 |
| 20260506185704 | 25 | 95 | 1.6 | 4.8 | 0.00 | 0.08 | 0.00 | 80 | 1016.7 |
| 20260506185621 | 25 | 104 | 1.6 | 4.8 | 0.00 | 0.08 | 0.00 | 80 | 1016.7 |
| 20260506185512 | 25 | 52 | 1.6 | 4.8 | 0.00 | 0.08 | 0.00 | 80 | 1016.7 |
| 20260506185402 | 25 | 245 | 1.6 | 4.8 | 0.00 | 0.08 | 0.00 | 81 | 1016.7 |
| 20260506185311 | 25 | 107 | 1.6 | 4.8 | 0.00 | 0.08 | 0.00 | 81 | 1016.7 |
| 20260506185222 | 25 | 104 | 1.6 | 4.8 | 0.00 | 0.08 | 0.00 | 82 | 1016.7 |
| 20260506185109 | 25 | 148 | 1.6 | 4.8 | 0.00 | 0.08 | 0.00 | 82 | 1016.8 |
| 20260506185005 | 25 | 231 | 1.6 | 4.8 | 0.00 | 0.08 | 0.00 | 82 | 1016.7 |
| 20260506184904 | 25 | 209 | 1.6 | 4.8 | 0.00 | 0.08 | 0.00 | 82 | 1016.7 |
| 20260506184810 | 25 | 203 | 1.6 | 4.8 | 0.00 | 0.08 | 0.00 | 82 | 1016.7 |
| 20260506184713 | 25 | 136 | 1.6 | 4.8 | 0.00 | 0.08 | 0.00 | 82 | 1016.7 |
| 20260506184610 | 25 | 124 | 1.6 | 4.8 | 0.00 | 0.08 | 0.00 | 82 | 1016.7 |
| 20260506184512 | 25 | 124 | 1.6 | 4.8 | 0.00 | 0.08 | 0.00 | 83 | 1016.7 |
| 20260506184402 | 25 | 127 | 1.6 | 4.8 | 0.00 | 0.08 | 0.00 | 83 | 1016.8 |
| 20260506184238 | 25 | 123 | 1.6 | 4.8 | 0.00 | 0.08 | 0.00 | 83 | 1016.8 |
| 20260506184119 | 25 | 123 | 3.2 | 4.8 | 0.00 | 0.08 | 0.00 | 83 | 1016.8 |
| 20260506184007 | 25 | 261 | 3.2 | 4.8 | 0.00 | 0.08 | 0.00 | 83 | 1016.9 |
| 20260506183826 | 25 | 234 | 1.6 | 3.2 | 0.00 | 0.08 | 0.00 | 83 | 1016.9 |
| 20260506183705 | 25 | 190 | 1.6 | 3.2 | 0.00 | 0.08 | 0.00 | 83 | 1017.0 |
| 20260506183606 | 24 | 233 | 1.6 | 3.2 | 0.00 | 0.08 | 0.00 | 83 | 1016.9 |
| 20260506183509 | 24 | 232 | 1.6 | 3.2 | 0.00 | 0.08 | 0.00 | 83 | 1016.9 |
| 20260506183411 | 24 | 200 | 1.6 | 4.8 | 0.00 | 0.08 | 0.00 | 84 | 1016.9 |
| 20260506183321 | 24 | 193 | 1.6 | 4.8 | 0.00 | 0.08 | 0.00 | 83 | 1016.9 |
| 20260506183203 | 24 | 186 | 1.6 | 4.8 | 0.00 | 0.08 | 0.00 | 84 | 1016.8 |
| 20260506183106 | 24 | 127 | 0.0 | 4.8 | 0.00 | 0.08 | 0.00 | 83 | 1016.8 |
| 20260506183017 | 24 | 151 | 0.0 | 4.8 | 0.00 | 0.08 | 0.00 | 83 | 1016.8 |
| 20260506182833 | 24 | 233 | 1.6 | 4.8 | 0.00 | 0.08 | 0.00 | 82 | 1016.8 |
| 20260506182708 | 23 | 224 | 1.6 | 4.8 | 0.00 | 0.08 | 0.00 | 83 | 1016.7 |
| 20260506182604 | 23 | 285 | 1.6 | 4.8 | 0.00 | 0.08 | 0.00 | 83 | 1016.7 |
| 20260506182514 | 23 | 289 | 1.6 | 4.8 | 0.00 | 0.08 | 0.00 | 82 | 1016.8 |
| 20260506182417 | 23 | 188 | 1.6 | 3.2 | 0.00 | 0.08 | 0.00 | 82 | 1016.8 |
| 20260506182339 | 23 | 218 | 1.6 | 3.2 | 0.00 | 0.08 | 0.00 | 82 | 1016.8 |
| 20260506182208 | 23 | 254 | 0.0 | 3.2 | 0.00 | 0.08 | 0.00 | 83 | 1016.7 |
| 20260506182121 | 23 | 195 | 0.0 | 3.2 | 0.00 | 0.08 | 0.00 | 83 | 1016.7 |
| 20260506182006 | 23 | 198 | 1.6 | 3.2 | 0.00 | 0.08 | 0.00 | 83 | 1016.7 |
| 20260506181918 | 23 | 198 | 1.6 | 3.2 | 0.00 | 0.08 | 0.00 | 84 | 1016.7 |
| 20260506181608 | 23 | 231 | 1.6 | 3.2 | 0.00 | 0.08 | 0.00 | 84 | 1016.7 |
| 20260506181522 | 23 | 231 | 1.6 | 6.4 | 0.00 | 0.08 | 0.00 | 84 | 1016.7 |
| 20260506181402 | 23 | 202 | 0.0 | 6.4 | 0.00 | 0.08 | 0.00 | 83 | 1016.7 |
| 20260506181300 | 23 | 195 | 0.0 | 6.4 | 0.00 | 0.08 | 0.00 | 83 | 1016.6 |
| 20260506181202 | 23 | 213 | 0.0 | 6.4 | 0.00 | 0.08 | 0.00 | 83 | 1016.7 |
| 20260506181110 | 23 | 199 | 0.0 | 6.4 | 0.00 | 0.08 | 0.00 | 83 | 1016.7 |